Wetterdaten: Donnerstag, 19.12.2013
Datum Zeit Temp. Aussen +5cm Feuchte Auss Luftdruck Regen Sonnenschein Regendauer UV Solar Windben
19.12.2013 00:00 6,8 C 5,6 C 91 % 1006,5 hPa 0,0 l/m 0 min 0 min 0,0 UV-I 0 W/m 20,6 km/h (4 Bft)
19.12.2013 00:02 6,8 C 5,6 C 91 % 1006,4 hPa 0,0 l/m 0 min 0 min 0,0 UV-I 0 W/m 18,0 km/h (3 Bft)
19.12.2013 00:06 6,8 C 5,6 C 91 % 1006,3 hPa 0,0 l/m 0 min 0 min 0,0 UV-I 0 W/m 20,6 km/h (4 Bft)
19.12.2013 00:08 6,8 C 5,6 C 91 % 1006,2 hPa 0,0 l/m 0 min 0 min 0,0 UV-I 0 W/m 18,0 km/h (3 Bft)
19.12.2013 00:10 6,9 C 5,6 C 91 % 1006,2 hPa 0,0 l/m 0 min 0 min 0,0 UV-I 0 W/m 20,6 km/h (4 Bft)
19.12.2013 00:12 6,9 C 5,6 C 91 % 1006,2 hPa 0,0 l/m 0 min 0 min 0,0 UV-I 0 W/m 23,2 km/h (4 Bft)
19.12.2013 00:14 6,9 C 5,6 C 91 % 1006,2 hPa 0,0 l/m 0 min 0 min 0,0 UV-I 0 W/m 18,0 km/h (3 Bft)
19.12.2013 00:16 6,9 C 5,6 C 91 % 1006,2 hPa 0,0 l/m 0 min 0 min 0,0 UV-I 0 W/m 28,3 km/h (4 Bft)
19.12.2013 00:18 6,9 C 5,6 C 91 % 1006,1 hPa 0,0 l/m 0 min 0 min 0,0 UV-I 0 W/m 25,7 km/h (4 Bft)
19.12.2013 00:20 6,9 C 5,6 C 91 % 1006,1 hPa 0,0 l/m 0 min 0 min 0,0 UV-I 0 W/m 20,6 km/h (4 Bft)
19.12.2013 00:22 6,9 C 5,6 C 91 % 1006,0 hPa 0,0 l/m 0 min 0 min 0,0 UV-I 0 W/m 23,2 km/h (4 Bft)
19.12.2013 00:24 6,9 C 5,6 C 91 % 1006,0 hPa 0,0 l/m 0 min 0 min 0,0 UV-I 0 W/m 25,7 km/h (4 Bft)
19.12.2013 00:26 6,9 C 5,6 C 91 % 1006,0 hPa 0,0 l/m 0 min 0 min 0,0 UV-I 0 W/m 28,3 km/h (4 Bft)
19.12.2013 00:28 6,9 C 5,6 C 91 % 1006,0 hPa 0,0 l/m 0 min 0 min 0,0 UV-I 0 W/m 33,5 km/h (5 Bft)
19.12.2013 00:30 6,9 C 5,6 C 91 % 1005,9 hPa 0,0 l/m 0 min 0 min 0,0 UV-I 0 W/m 20,6 km/h (4 Bft)
19.12.2013 00:32 6,9 C 5,6 C 91 % 1005,9 hPa 0,0 l/m 0 min 0 min 0,0 UV-I 0 W/m 25,7 km/h (4 Bft)
19.12.2013 00:34 6,9 C 5,6 C 91 % 1005,8 hPa 0,0 l/m 0 min 0 min 0,0 UV-I 0 W/m 23,2 km/h (4 Bft)
19.12.2013 00:36 7,0 C 5,6 C 91 % 1005,8 hPa 0,0 l/m 0 min 0 min 0,0 UV-I 0 W/m 18,0 km/h (3 Bft)
19.12.2013 00:38 7,0 C 5,6 C 91 % 1005,6 hPa 0,0 l/m 0 min 0 min 0,0 UV-I 0 W/m 20,6 km/h (4 Bft)
19.12.2013 00:40 7,0 C 5,6 C 91 % 1005,6 hPa 0,0 l/m 0 min 0 min 0,0 UV-I 0 W/m 20,6 km/h (4 Bft)
19.12.2013 00:42 7,0 C 5,6 C 91 % 1005,6 hPa 0,0 l/m 0 min 0 min 0,0 UV-I 0 W/m 18,0 km/h (3 Bft)
19.12.2013 00:44 7,0 C 5,6 C 91 % 1005,5 hPa 0,0 l/m 0 min 0 min 0,0 UV-I 0 W/m 28,3 km/h (4 Bft)
19.12.2013 00:46 7,0 C 5,6 C 91 % 1005,5 hPa 0,0 l/m 0 min 0 min 0,0 UV-I 0 W/m 20,6 km/h (4 Bft)
19.12.2013 00:48 7,0 C 5,6 C 91 % 1005,4 hPa 0,0 l/m 0 min 0 min 0,0 UV-I 0 W/m 20,6 km/h (4 Bft)
19.12.2013 00:50 7,1 C 5,6 C 90 % 1005,4 hPa 0,0 l/m 0 min 0 min 0,0 UV-I 0 W/m 18,0 km/h (3 Bft)
19.12.2013 00:52 7,1 C 5,6 C 90 % 1005,4 hPa 0,0 l/m 0 min 0 min 0,0 UV-I 0 W/m 28,3 km/h (4 Bft)
19.12.2013 00:54 7,1 C 5,6 C 90 % 1005,4 hPa 0,0 l/m 0 min 0 min 0,0 UV-I 0 W/m 28,3 km/h (4 Bft)
19.12.2013 00:56 7,1 C 5,6 C 90 % 1005,4 hPa 0,0 l/m 0 min 0 min 0,0 UV-I 0 W/m 30,9 km/h (5 Bft)
19.12.2013 00:58 7,1 C 5,6 C 90 % 1005,4 hPa 0,0 l/m 0 min 0 min 0,0 UV-I 0 W/m 36,0 km/h (5 Bft)
19.12.2013 01:00 7,1 C 5,6 C 90 % 1005,3 hPa 0,0 l/m 0 min 0 min 0,0 UV-I 0 W/m 28,3 km/h (4 Bft)
19.12.2013 01:02 7,1 C 5,6 C 90 % 1005,2 hPa 0,0 l/m 0 min 0 min 0,0 UV-I 0 W/m 25,7 km/h (4 Bft)
19.12.2013 01:04 7,2 C 5,6 C 90 % 1005,2 hPa 0,0 l/m 0 min 0 min 0,0 UV-I 0 W/m 36,0 km/h (5 Bft)
19.12.2013 01:06 7,2 C 5,6 C 90 % 1005,2 hPa 0,0 l/m 0 min 0 min 0,0 UV-I 0 W/m 23,2 km/h (4 Bft)
19.12.2013 01:08 7,2 C 5,6 C 90 % 1005,1 hPa 0,0 l/m 0 min 0 min 0,0 UV-I 0 W/m 23,2 km/h (4 Bft)
19.12.2013 01:10 7,2 C 5,6 C 90 % 1005,2 hPa 0,0 l/m 0 min 0 min 0,0 UV-I 0 W/m 28,3 km/h (4 Bft)
19.12.2013 01:12 7,2 C 5,6 C 90 % 1005,1 hPa 0,0 l/m 0 min 0 min 0,0 UV-I 0 W/m 18,0 km/h (3 Bft)
19.12.2013 01:14 7,2 C 5,6 C 90 % 1005,1 hPa 0,0 l/m 0 min 0 min 0,0 UV-I 0 W/m 25,7 km/h (4 Bft)
19.12.2013 01:16 7,2 C 5,6 C 90 % 1005,1 hPa 0,0 l/m 0 min 0 min 0,0 UV-I 0 W/m 20,6 km/h (4 Bft)
19.12.2013 01:18 7,3 C 5,6 C 90 % 1005,0 hPa 0,0 l/m 0 min 0 min 0,0 UV-I 0 W/m 23,2 km/h (4 Bft)
19.12.2013 01:20 7,3 C 5,6 C 90 % 1005,1 hPa 0,0 l/m 0 min 0 min 0,0 UV-I 0 W/m 33,5 km/h (5 Bft)
19.12.2013 01:22 7,3 C 5,6 C 90 % 1005,0 hPa 0,0 l/m 0 min 0 min 0,0 UV-I 0 W/m 25,7 km/h (4 Bft)
19.12.2013 01:24 7,3 C 6,1 C 90 % 1004,9 hPa 0,0 l/m 0 min 0 min 0,0 UV-I 0 W/m 25,7 km/h (4 Bft)
19.12.2013 01:26 7,3 C 6,1 C 90 % 1004,8 hPa 0,0 l/m 0 min 0 min 0,0 UV-I 0 W/m 23,2 km/h (4 Bft)
19.12.2013 01:28 7,3 C 6,1 C 90 % 1004,7 hPa 0,0 l/m 0 min 0 min 0,0 UV-I 0 W/m 15,4 km/h (3 Bft)
19.12.2013 01:30 7,3 C 5,6 C 90 % 1004,8 hPa 0,0 l/m 0 min 0 min 0,0 UV-I 0 W/m 36,0 km/h (5 Bft)
19.12.2013 01:32 7,3 C 6,1 C 90 % 1004,6 hPa 0,0 l/m 0 min 0 min 0,0 UV-I 0 W/m 33,5 km/h (5 Bft)
19.12.2013 01:34 7,3 C 6,1 C 90 % 1004,6 hPa 0,0 l/m 0 min 0 min 0,0 UV-I 0 W/m 25,7 km/h (4 Bft)
19.12.2013 01:36 7,4 C 6,1 C 90 % 1004,6 hPa 0,0 l/m 0 min 0 min 0,0 UV-I 0 W/m 23,2 km/h (4 Bft)
19.12.2013 01:38 7,4 C 6,1 C 90 % 1004,5 hPa 0,0 l/m 0 min 0 min 0,0 UV-I 0 W/m 28,3 km/h (4 Bft)
19.12.2013 01:40 7,4 C 6,1 C 90 % 1004,5 hPa 0,0 l/m 0 min 0 min 0,0 UV-I 0 W/m 23,2 km/h (4 Bft)
19.12.2013 01:42 7,4 C 6,1 C 90 % 1004,4 hPa 0,0 l/m 0 min 0 min 0,0 UV-I 0 W/m 20,6 km/h (4 Bft)
19.12.2013 01:44 7,4 C 6,1 C 90 % 1004,4 hPa 0,0 l/m 0 min 0 min 0,0 UV-I 0 W/m 30,9 km/h (5 Bft)
19.12.2013 01:46 7,4 C 6,1 C 90 % 1004,4 hPa 0,0 l/m 0 min 0 min 0,0 UV-I 0 W/m 28,3 km/h (4 Bft)
19.12.2013 01:48 7,4 C 6,1 C 90 % 1004,3 hPa 0,0 l/m 0 min 0 min 0,0 UV-I 0 W/m 23,2 km/h (4 Bft)
19.12.2013 01:50 7,4 C 6,1 C 90 % 1004,4 hPa 0,0 l/m 0 min 0 min 0,0 UV-I 0 W/m 20,6 km/h (4 Bft)
19.12.2013 01:52 7,4 C 6,1 C 90 % 1004,3 hPa 0,0 l/m 0 min 0 min 0,0 UV-I 0 W/m 18,0 km/h (3 Bft)
19.12.2013 01:54 7,4 C 6,1 C 90 % 1004,3 hPa 0,0 l/m 0 min 0 min 0,0 UV-I 0 W/m 18,0 km/h (3 Bft)
19.12.2013 01:56 7,4 C 6,1 C 90 % 1004,3 hPa 0,0 l/m 0 min 0 min 0,0 UV-I 0 W/m 23,2 km/h (4 Bft)
19.12.2013 01:58 7,4 C 6,1 C 90 % 1004,3 hPa 0,0 l/m 0 min 0 min 0,0 UV-I 0 W/m 18,0 km/h (3 Bft)
19.12.2013 02:00 7,4 C 6,1 C 90 % 1004,2 hPa 0,0 l/m 0 min 0 min 0,0 UV-I 0 W/m 28,3 km/h (4 Bft)
19.12.2013 02:02 7,4 C 6,1 C 90 % 1004,2 hPa 0,0 l/m 0 min 0 min 0,0 UV-I 0 W/m 15,4 km/h (3 Bft)
19.12.2013 02:04 7,4 C 6,1 C 90 % 1004,2 hPa 0,0 l/m 0 min 0 min 0,0 UV-I 0 W/m 15,4 km/h (3 Bft)
19.12.2013 02:06 7,4 C 6,1 C 90 % 1004,2 hPa 0,0 l/m 0 min 0 min 0,0 UV-I 0 W/m 23,2 km/h (4 Bft)
19.12.2013 02:08 7,4 C 6,1 C 90 % 1004,2 hPa 0,0 l/m 0 min 0 min 0,0 UV-I 0 W/m 15,4 km/h (3 Bft)
19.12.2013 02:10 7,4 C 6,1 C 90 % 1004,0 hPa 0,0 l/m 0 min 0 min 0,0 UV-I 0 W/m 20,6 km/h (4 Bft)
19.12.2013 02:12 7,5 C 6,1 C 90 % 1004,0 hPa 0,0 l/m 0 min 0 min 0,0 UV-I 0 W/m 18,0 km/h (3 Bft)
19.12.2013 02:14 7,5 C 6,1 C 90 % 1004,0 hPa 0,0 l/m 0 min 0 min 0,0 UV-I 0 W/m 15,4 km/h (3 Bft)
19.12.2013 02:16 7,5 C 6,1 C 90 % 1004,0 hPa 0,0 l/m 0 min 0 min 0,0 UV-I 0 W/m 15,4 km/h (3 Bft)
19.12.2013 02:18 7,5 C 6,1 C 90 % 1003,8 hPa 0,0 l/m 0 min 0 min 0,0 UV-I 0 W/m 18,0 km/h (3 Bft)
19.12.2013 02:20 7,5 C 6,1 C 90 % 1003,8 hPa 0,0 l/m 0 min 0 min 0,0 UV-I 0 W/m 20,6 km/h (4 Bft)
19.12.2013 02:22 7,5 C 6,1 C 90 % 1003,7 hPa 0,0 l/m 0 min 0 min 0,0 UV-I 0 W/m 20,6 km/h (4 Bft)
19.12.2013 02:24 7,6 C 6,1 C 90 % 1003,7 hPa 0,0 l/m 0 min 0 min 0,0 UV-I 0 W/m 18,0 km/h (3 Bft)
19.12.2013 02:26 7,6 C 6,1 C 90 % 1003,7 hPa 0,0 l/m 0 min 0 min 0,0 UV-I 0 W/m 20,6 km/h (4 Bft)
19.12.2013 02:28 7,6 C 6,1 C 90 % 1003,7 hPa 0,0 l/m 0 min 0 min 0,0 UV-I 0 W/m 18,0 km/h (3 Bft)
19.12.2013 02:30 7,6 C 6,1 C 90 % 1003,7 hPa 0,0 l/m 0 min 0 min 0,0 UV-I 0 W/m 12,9 km/h (3 Bft)
19.12.2013 02:32 7,6 C 6,1 C 90 % 1003,7 hPa 0,0 l/m 0 min 2 min 0,0 UV-I 0 W/m 23,2 km/h (4 Bft)
19.12.2013 02:34 7,6 C 6,1 C 90 % 1003,7 hPa 0,0 l/m 0 min 0 min 0,0 UV-I 0 W/m 23,2 km/h (4 Bft)
19.12.2013 02:36 7,6 C 6,1 C 90 % 1003,7 hPa 0,0 l/m 0 min 0 min 0,0 UV-I 0 W/m 18,0 km/h (3 Bft)
19.12.2013 02:38 7,7 C 6,1 C 90 % 1003,7 hPa 0,0 l/m 0 min 2 min 0,0 UV-I 0 W/m 18,0 km/h (3 Bft)
19.12.2013 02:40 7,7 C 6,1 C 90 % 1003,7 hPa 0,0 l/m 0 min 2 min 0,0 UV-I 0 W/m 20,6 km/h (4 Bft)
19.12.2013 02:42 7,7 C 6,1 C 90 % 1003,7 hPa 0,0 l/m 0 min 2 min 0,0 UV-I 0 W/m 20,6 km/h (4 Bft)
19.12.2013 02:44 7,7 C 5,6 C 90 % 1003,7 hPa 0,0 l/m 0 min 2 min 0,0 UV-I 0 W/m 20,6 km/h (4 Bft)
19.12.2013 02:46 7,7 C 5,6 C 90 % 1003,6 hPa 0,0 l/m 0 min 2 min 0,0 UV-I 0 W/m 23,2 km/h (4 Bft)
19.12.2013 02:48 7,7 C 5,6 C 90 % 1003,7 hPa 0,0 l/m 0 min 2 min 0,0 UV-I 0 W/m 10,3 km/h (2 Bft)
19.12.2013 02:50 7,7 C 5,6 C 90 % 1003,6 hPa 0,2 l/m 0 min 2 min 0,0 UV-I 0 W/m 18,0 km/h (3 Bft)
19.12.2013 02:52 7,7 C 5,6 C 91 % 1003,6 hPa 0,0 l/m 0 min 2 min 0,0 UV-I 0 W/m 18,0 km/h (3 Bft)
19.12.2013 02:54 7,7 C 5,6 C 91 % 1003,5 hPa 0,0 l/m 0 min 2 min 0,0 UV-I 0 W/m 12,9 km/h (3 Bft)
19.12.2013 02:56 7,7 C 5,6 C 91 % 1003,5 hPa 0,0 l/m 0 min 2 min 0,0 UV-I 0 W/m 15,4 km/h (3 Bft)
19.12.2013 02:58 7,7 C 5,6 C 91 % 1003,4 hPa 0,0 l/m 0 min 2 min 0,0 UV-I 0 W/m 12,9 km/h (3 Bft)
19.12.2013 03:00 7,7 C 5,6 C 91 % 1003,3 hPa 0,0 l/m 0 min 2 min 0,0 UV-I 0 W/m 18,0 km/h (3 Bft)
19.12.2013 03:02 7,7 C 5,6 C 91 % 1003,3 hPa 0,0 l/m 0 min 2 min 0,0 UV-I 0 W/m 15,4 km/h (3 Bft)
19.12.2013 03:04 7,7 C 5,6 C 91 % 1003,3 hPa 0,0 l/m 0 min 2 min 0,0 UV-I 0 W/m 15,4 km/h (3 Bft)
19.12.2013 03:06 7,6 C 5,6 C 91 % 1003,3 hPa 0,0 l/m 0 min 2 min 0,0 UV-I 0 W/m 15,4 km/h (3 Bft)
19.12.2013 03:08 7,6 C 5,6 C 92 % 1003,3 hPa 0,0 l/m 0 min 2 min 0,0 UV-I 0 W/m 15,4 km/h (3 Bft)
19.12.2013 03:10 7,6 C 5,6 C 92 % 1003,3 hPa 0,0 l/m 0 min 2 min 0,0 UV-I 0 W/m 12,9 km/h (3 Bft)
19.12.2013 03:12 7,6 C 5,6 C 92 % 1003,2 hPa 0,2 l/m 0 min 2 min 0,0 UV-I 0 W/m 18,0 km/h (3 Bft)
19.12.2013 03:14 7,6 C 5,6 C 92 % 1003,2 hPa 0,0 l/m 0 min 2 min 0,0 UV-I 0 W/m 10,3 km/h (2 Bft)
19.12.2013 03:16 7,6 C 5,6 C 92 % 1003,1 hPa 0,0 l/m 0 min 2 min 0,0 UV-I 0 W/m 12,9 km/h (3 Bft)
19.12.2013 03:18 7,6 C 5,6 C 92 % 1003,2 hPa 0,0 l/m 0 min 2 min 0,0 UV-I 0 W/m 10,3 km/h (2 Bft)
19.12.2013 03:20 7,6 C 5,6 C 92 % 1003,1 hPa 0,2 l/m 0 min 2 min 0,0 UV-I 0 W/m 0,0 km/h (0 Bft)
19.12.2013 03:22 7,5 C 5,6 C 92 % 1003,1 hPa 0,0 l/m 0 min 2 min 0,0 UV-I 0 W/m 10,3 km/h (2 Bft)
19.12.2013 03:24 7,5 C 5,6 C 93 % 1003,2 hPa 0,0 l/m 0 min 2 min 0,0 UV-I 0 W/m 5,1 km/h (1 Bft)
19.12.2013 03:26 7,5 C 5,6 C 93 % 1003,2 hPa 0,0 l/m 0 min 2 min 0,0 UV-I 0 W/m 2,6 km/h (1 Bft)
19.12.2013 03:28 7,5 C 5,6 C 93 % 1003,3 hPa 0,0 l/m 0 min 2 min 0,0 UV-I 0 W/m 5,1 km/h (1 Bft)
19.12.2013 03:30 7,5 C 5,6 C 93 % 1003,1 hPa 0,2 l/m 0 min 2 min 0,0 UV-I 0 W/m 12,9 km/h (3 Bft)
19.12.2013 03:32 7,5 C 5,6 C 93 % 1003,0 hPa 0,0 l/m 0 min 2 min 0,0 UV-I 0 W/m 15,4 km/h (3 Bft)
19.12.2013 03:34 7,5 C 5,6 C 93 % 1003,1 hPa 0,2 l/m 0 min 2 min 0,0 UV-I 0 W/m 7,7 km/h (2 Bft)
19.12.2013 03:36 7,5 C 5,6 C 94 % 1003,1 hPa 0,0 l/m 0 min 2 min 0,0 UV-I 0 W/m 10,3 km/h (2 Bft)
19.12.2013 03:38 7,6 C 6,1 C 93 % 1003,0 hPa 0,0 l/m 0 min 2 min 0,0 UV-I 0 W/m 7,7 km/h (2 Bft)
19.12.2013 03:40 7,6 C 6,1 C 94 % 1003,1 hPa 0,0 l/m 0 min 2 min 0,0 UV-I 0 W/m 0,0 km/h (0 Bft)
19.12.2013 03:42 7,6 C 6,1 C 94 % 1002,9 hPa 0,2 l/m 0 min 2 min 0,0 UV-I 0 W/m 10,3 km/h (2 Bft)
19.12.2013 03:44 7,6 C 6,1 C 94 % 1002,8 hPa 0,0 l/m 0 min 2 min 0,0 UV-I 0 W/m 2,6 km/h (1 Bft)
19.12.2013 03:46 7,6 C 6,1 C 94 % 1002,8 hPa 0,2 l/m 0 min 2 min 0,0 UV-I 0 W/m 15,4 km/h (3 Bft)
19.12.2013 03:48 7,7 C 6,1 C 94 % 1002,7 hPa 0,0 l/m 0 min 2 min 0,0 UV-I 0 W/m 12,9 km/h (3 Bft)
19.12.2013 03:50 7,7 C 6,1 C 94 % 1002,7 hPa 0,0 l/m 0 min 2 min 0,0 UV-I 0 W/m 12,9 km/h (3 Bft)
19.12.2013 03:52 7,7 C 6,1 C 94 % 1002,6 hPa 0,0 l/m 0 min 2 min 0,0 UV-I 0 W/m 15,4 km/h (3 Bft)
19.12.2013 03:54 7,7 C 6,1 C 94 % 1002,6 hPa 0,0 l/m 0 min 2 min 0,0 UV-I 0 W/m 7,7 km/h (2 Bft)
19.12.2013 03:56 7,7 C 6,1 C 94 % 1002,6 hPa 0,2 l/m 0 min 2 min 0,0 UV-I 0 W/m 7,7 km/h (2 Bft)
19.12.2013 03:58 7,7 C 6,1 C 95 % 1002,6 hPa 0,0 l/m 0 min 2 min 0,0 UV-I 0 W/m 18,0 km/h (3 Bft)
19.12.2013 04:00 7,8 C 6,1 C 95 % 1002,5 hPa 0,0 l/m 0 min 2 min 0,0 UV-I 0 W/m 18,0 km/h (3 Bft)
19.12.2013 04:02 7,8 C 6,1 C 95 % 1002,6 hPa 0,2 l/m 0 min 2 min 0,0 UV-I 0 W/m 15,4 km/h (3 Bft)
19.12.2013 04:04 7,8 C 6,1 C 95 % 1002,5 hPa 0,0 l/m 0 min 2 min 0,0 UV-I 0 W/m 20,6 km/h (4 Bft)
19.12.2013 04:06 7,8 C 6,1 C 95 % 1002,4 hPa 0,0 l/m 0 min 2 min 0,0 UV-I 0 W/m 18,0 km/h (3 Bft)
19.12.2013 04:08 7,9 C 6,1 C 95 % 1002,4 hPa 0,0 l/m 0 min 2 min 0,0 UV-I 0 W/m 10,3 km/h (2 Bft)
19.12.2013 04:10 7,9 C 6,1 C 95 % 1002,4 hPa 0,0 l/m 0 min 2 min 0,0 UV-I 0 W/m 18,0 km/h (3 Bft)
19.12.2013 04:12 7,9 C 6,1 C 95 % 1002,4 hPa 0,0 l/m 0 min 2 min 0,0 UV-I 0 W/m 12,9 km/h (3 Bft)
19.12.2013 04:14 7,9 C 6,1 C 95 % 1002,3 hPa 0,2 l/m 0 min 2 min 0,0 UV-I 0 W/m 10,3 km/h (2 Bft)
19.12.2013 04:16 7,9 C 6,1 C 95 % 1002,3 hPa 0,0 l/m 0 min 2 min 0,0 UV-I 0 W/m 18,0 km/h (3 Bft)
19.12.2013 04:18 7,9 C 6,1 C 95 % 1002,2 hPa 0,0 l/m 0 min 2 min 0,0 UV-I 0 W/m 15,4 km/h (3 Bft)
19.12.2013 04:20 7,9 C 6,1 C 95 % 1002,2 hPa 0,0 l/m 0 min 2 min 0,0 UV-I 0 W/m 12,9 km/h (3 Bft)
19.12.2013 04:22 7,9 C 6,1 C 95 % 1002,2 hPa 0,2 l/m 0 min 2 min 0,0 UV-I 0 W/m 15,4 km/h (3 Bft)
19.12.2013 04:24 7,9 C 6,7 C 96 % 1002,2 hPa 0,0 l/m 0 min 2 min 0,0 UV-I 0 W/m 18,0 km/h (3 Bft)
19.12.2013 04:26 7,9 C 6,7 C 95 % 1002,2 hPa 0,0 l/m 0 min 2 min 0,0 UV-I 0 W/m 20,6 km/h (4 Bft)
19.12.2013 04:28 8,0 C 6,7 C 96 % 1002,1 hPa 0,0 l/m 0 min 2 min 0,0 UV-I 0 W/m 23,2 km/h (4 Bft)
19.12.2013 04:30 8,0 C 6,7 C 96 % 1002,1 hPa 0,0 l/m 0 min 2 min 0,0 UV-I 0 W/m 10,3 km/h (2 Bft)
19.12.2013 04:32 8,0 C 6,7 C 96 % 1002,1 hPa 0,0 l/m 0 min 2 min 0,0 UV-I 0 W/m 18,0 km/h (3 Bft)
19.12.2013 04:34 8,0 C 6,7 C 96 % 1002,1 hPa 0,2 l/m 0 min 2 min 0,0 UV-I 0 W/m 10,3 km/h (2 Bft)
19.12.2013 04:36 8,0 C 6,7 C 96 % 1002,0 hPa 0,0 l/m 0 min 2 min 0,0 UV-I 0 W/m 12,9 km/h (3 Bft)
19.12.2013 04:38 8,0 C 6,7 C 96 % 1002,0 hPa 0,0 l/m 0 min 2 min 0,0 UV-I 0 W/m 15,4 km/h (3 Bft)
19.12.2013 04:40 8,1 C 6,7 C 96 % 1001,9 hPa 0,0 l/m 0 min 2 min 0,0 UV-I 0 W/m 15,4 km/h (3 Bft)
19.12.2013 04:42 8,1 C 6,7 C 96 % 1001,9 hPa 0,0 l/m 0 min 2 min 0,0 UV-I 0 W/m 12,9 km/h (3 Bft)
19.12.2013 04:44 8,1 C 6,7 C 96 % 1001,9 hPa 0,2 l/m 0 min 2 min 0,0 UV-I 0 W/m 15,4 km/h (3 Bft)
19.12.2013 04:46 8,1 C 6,7 C 96 % 1001,9 hPa 0,0 l/m 0 min 2 min 0,0 UV-I 0 W/m 12,9 km/h (3 Bft)
19.12.2013 04:48 8,1 C 6,7 C 96 % 1001,9 hPa 0,0 l/m 0 min 2 min 0,0 UV-I 0 W/m 10,3 km/h (2 Bft)
19.12.2013 04:50 8,1 C 6,7 C 96 % 1001,8 hPa 0,0 l/m 0 min 2 min 0,0 UV-I 0 W/m 15,4 km/h (3 Bft)
19.12.2013 04:52 8,1 C 6,7 C 96 % 1001,7 hPa 0,0 l/m 0 min 2 min 0,0 UV-I 0 W/m 18,0 km/h (3 Bft)
19.12.2013 04:54 8,1 C 6,7 C 96 % 1001,8 hPa 0,0 l/m 0 min 2 min 0,0 UV-I 0 W/m 15,4 km/h (3 Bft)
19.12.2013 04:56 8,1 C 6,7 C 96 % 1001,8 hPa 0,0 l/m 0 min 2 min 0,0 UV-I 0 W/m 15,4 km/h (3 Bft)
19.12.2013 04:58 8,1 C 6,7 C 96 % 1001,7 hPa 0,2 l/m 0 min 2 min 0,0 UV-I 0 W/m 18,0 km/h (3 Bft)
19.12.2013 05:00 8,1 C 6,7 C 96 % 1001,7 hPa 0,0 l/m 0 min 2 min 0,0 UV-I 0 W/m 15,4 km/h (3 Bft)
19.12.2013 05:02 8,1 C 6,7 C 96 % 1001,7 hPa 0,0 l/m 0 min 2 min 0,0 UV-I 0 W/m 15,4 km/h (3 Bft)
19.12.2013 05:04 8,1 C 6,7 C 96 % 1001,7 hPa 0,2 l/m 0 min 2 min 0,0 UV-I 0 W/m 20,6 km/h (4 Bft)
19.12.2013 05:06 8,1 C 6,7 C 96 % 1001,7 hPa 0,0 l/m 0 min 2 min 0,0 UV-I 0 W/m 15,4 km/h (3 Bft)
19.12.2013 05:08 8,1 C 6,7 C 96 % 1001,7 hPa 0,0 l/m 0 min 2 min 0,0 UV-I 0 W/m 20,6 km/h (4 Bft)
19.12.2013 05:10 8,1 C 6,7 C 96 % 1001,8 hPa 0,0 l/m 0 min 2 min 0,0 UV-I 0 W/m 18,0 km/h (3 Bft)
19.12.2013 05:12 8,1 C 6,7 C 96 % 1001,7 hPa 0,0 l/m 0 min 2 min 0,0 UV-I 0 W/m 15,4 km/h (3 Bft)
19.12.2013 05:14 8,1 C 6,7 C 96 % 1001,7 hPa 0,0 l/m 0 min 2 min 0,0 UV-I 0 W/m 20,6 km/h (4 Bft)
19.12.2013 05:16 8,1 C 6,7 C 96 % 1001,7 hPa 0,2 l/m 0 min 2 min 0,0 UV-I 0 W/m 15,4 km/h (3 Bft)
19.12.2013 05:18 8,1 C 6,7 C 96 % 1001,7 hPa 0,0 l/m 0 min 2 min 0,0 UV-I 0 W/m 20,6 km/h (4 Bft)
19.12.2013 05:20 8,1 C 6,7 C 96 % 1001,8 hPa 0,0 l/m 0 min 2 min 0,0 UV-I 0 W/m 15,4 km/h (3 Bft)
19.12.2013 05:22 8,1 C 6,7 C 96 % 1001,7 hPa 0,0 l/m 0 min 2 min 0,0 UV-I 0 W/m 12,9 km/h (3 Bft)
19.12.2013 05:24 8,1 C 6,7 C 96 % 1001,7 hPa 0,2 l/m 0 min 2 min 0,0 UV-I 0 W/m 15,4 km/h (3 Bft)
19.12.2013 05:26 8,1 C 6,7 C 96 % 1001,9 hPa 0,0 l/m 0 min 2 min 0,0 UV-I 0 W/m 23,2 km/h (4 Bft)
19.12.2013 05:28 8,2 C 6,7 C 96 % 1001,7 hPa 0,0 l/m 0 min 2 min 0,0 UV-I 0 W/m 25,7 km/h (4 Bft)
19.12.2013 05:30 8,2 C 6,7 C 96 % 1001,8 hPa 0,0 l/m 0 min 2 min 0,0 UV-I 0 W/m 41,2 km/h (6 Bft)
19.12.2013 05:32 8,2 C 6,7 C 96 % 1001,7 hPa 0,0 l/m 0 min 2 min 0,0 UV-I 0 W/m 12,9 km/h (3 Bft)
19.12.2013 05:34 8,2 C 6,7 C 96 % 1001,7 hPa 0,0 l/m 0 min 2 min 0,0 UV-I 0 W/m 5,1 km/h (1 Bft)
19.12.2013 05:36 8,2 C 6,7 C 96 % 1001,7 hPa 0,2 l/m 0 min 2 min 0,0 UV-I 0 W/m 15,4 km/h (3 Bft)
19.12.2013 05:38 8,2 C 6,7 C 96 % 1001,8 hPa 0,2 l/m 0 min 2 min 0,0 UV-I 0 W/m 28,3 km/h (4 Bft)
19.12.2013 05:40 8,2 C 6,7 C 100 % 1001,8 hPa 0,0 l/m 0 min 2 min 0,0 UV-I 0 W/m 23,2 km/h (4 Bft)
19.12.2013 05:42 8,2 C 6,7 C 100 % 1001,7 hPa 0,2 l/m 0 min 2 min 0,0 UV-I 0 W/m 10,3 km/h (2 Bft)
19.12.2013 05:44 8,2 C 6,7 C 100 % 1001,7 hPa 0,2 l/m 0 min 2 min 0,0 UV-I 0 W/m 25,7 km/h (4 Bft)
19.12.2013 05:46 8,2 C 6,7 C 100 % 1001,7 hPa 0,0 l/m 0 min 2 min 0,0 UV-I 0 W/m 20,6 km/h (4 Bft)
19.12.2013 05:48 8,2 C 6,7 C 100 % 1001,6 hPa 0,0 l/m 0 min 2 min 0,0 UV-I 0 W/m 12,9 km/h (3 Bft)
19.12.2013 05:50 8,2 C 6,7 C 100 % 1001,7 hPa 0,2 l/m 0 min 2 min 0,0 UV-I 0 W/m 18,0 km/h (3 Bft)
19.12.2013 05:52 8,2 C 6,7 C 100 % 1001,6 hPa 0,0 l/m 0 min 2 min 0,0 UV-I 0 W/m 18,0 km/h (3 Bft)
19.12.2013 05:54 8,2 C 6,7 C 97 % 1001,6 hPa 0,2 l/m 0 min 2 min 0,0 UV-I 0 W/m 12,9 km/h (3 Bft)
19.12.2013 05:56 8,2 C 6,7 C 100 % 1001,6 hPa 0,0 l/m 0 min 2 min 0,0 UV-I 0 W/m 12,9 km/h (3 Bft)
19.12.2013 05:58 8,2 C 6,7 C 100 % 1001,7 hPa 0,0 l/m 0 min 2 min 0,0 UV-I 0 W/m 10,3 km/h (2 Bft)
19.12.2013 06:00 8,2 C 6,7 C 96 % 1001,6 hPa 0,0 l/m 0 min 2 min 0,0 UV-I 0 W/m 7,7 km/h (2 Bft)
19.12.2013 06:02 8,2 C 6,7 C 100 % 1001,6 hPa 0,0 l/m 0 min 2 min 0,0 UV-I 0 W/m 15,4 km/h (3 Bft)
19.12.2013 06:06 8,2 C 6,7 C 100 % 1001,5 hPa 0,2 l/m 0 min 2 min 0,0 UV-I 0 W/m 23,2 km/h (4 Bft)
19.12.2013 06:08 8,2 C 6,7 C 96 % 1001,5 hPa 0,0 l/m 0 min 2 min 0,0 UV-I 0 W/m 20,6 km/h (4 Bft)
19.12.2013 06:10 8,2 C 6,7 C 100 % 1001,5 hPa 0,2 l/m 0 min 2 min 0,0 UV-I 0 W/m 18,0 km/h (3 Bft)
19.12.2013 06:12 8,2 C 6,7 C 100 % 1001,4 hPa 0,0 l/m 0 min 2 min 0,0 UV-I 0 W/m 18,0 km/h (3 Bft)
19.12.2013 06:14 8,2 C 6,7 C 100 % 1001,4 hPa 0,0 l/m 0 min 2 min 0,0 UV-I 0 W/m 28,3 km/h (4 Bft)
19.12.2013 06:16 8,2 C 6,7 C 97 % 1001,4 hPa 0,0 l/m 0 min 2 min 0,0 UV-I 0 W/m 12,9 km/h (3 Bft)
19.12.2013 06:18 8,2 C 6,7 C 100 % 1001,4 hPa 0,0 l/m 0 min 2 min 0,0 UV-I 0 W/m 23,2 km/h (4 Bft)
19.12.2013 06:20 8,2 C 6,7 C 100 % 1001,3 hPa 0,0 l/m 0 min 2 min 0,0 UV-I 0 W/m 12,9 km/h (3 Bft)
19.12.2013 06:22 8,2 C 6,7 C 97 % 1001,2 hPa 0,0 l/m 0 min 2 min 0,0 UV-I 0 W/m 12,9 km/h (3 Bft)
19.12.2013 06:24 8,2 C 6,7 C 100 % 1001,3 hPa 0,2 l/m 0 min 2 min 0,0 UV-I 0 W/m 20,6 km/h (4 Bft)
19.12.2013 06:26 8,2 C 6,7 C 97 % 1001,3 hPa 0,0 l/m 0 min 2 min 0,0 UV-I 0 W/m 15,4 km/h (3 Bft)
19.12.2013 06:28 8,2 C 6,7 C 97 % 1001,3 hPa 0,0 l/m 0 min 0 min 0,0 UV-I 0 W/m 18,0 km/h (3 Bft)
19.12.2013 06:30 8,2 C 6,7 C 97 % 1001,3 hPa 0,0 l/m 0 min 0 min 0,0 UV-I 0 W/m 7,7 km/h (2 Bft)
19.12.2013 06:32 8,2 C 6,7 C 100 % 1001,2 hPa 0,0 l/m 0 min 2 min 0,0 UV-I 0 W/m 7,7 km/h (2 Bft)
19.12.2013 06:34 8,2 C 6,7 C 100 % 1001,2 hPa 0,0 l/m 0 min 0 min 0,0 UV-I 0 W/m 12,9 km/h (3 Bft)
19.12.2013 06:36 8,2 C 6,7 C 100 % 1001,2 hPa 0,0 l/m 0 min 0 min 0,0 UV-I 0 W/m 23,2 km/h (4 Bft)
19.12.2013 06:38 8,2 C 6,7 C 97 % 1001,3 hPa 0,0 l/m 0 min 0 min 0,0 UV-I 0 W/m 15,4 km/h (3 Bft)
19.12.2013 06:40 8,2 C 6,7 C 97 % 1001,2 hPa 0,0 l/m 0 min 0 min 0,0 UV-I 0 W/m 18,0 km/h (3 Bft)
19.12.2013 06:42 8,2 C 6,7 C 97 % 1001,2 hPa 0,0 l/m 0 min 2 min 0,0 UV-I 0 W/m 15,4 km/h (3 Bft)
19.12.2013 06:44 8,2 C 6,7 C 97 % 1001,2 hPa 0,0 l/m 0 min 2 min 0,0 UV-I 0 W/m 18,0 km/h (3 Bft)
19.12.2013 06:46 8,2 C 6,7 C 97 % 1001,1 hPa 0,0 l/m 0 min 0 min 0,0 UV-I 0 W/m 10,3 km/h (2 Bft)
19.12.2013 06:48 8,2 C 6,7 C 97 % 1001,2 hPa 0,0 l/m 0 min 0 min 0,0 UV-I 0 W/m 12,9 km/h (3 Bft)
19.12.2013 06:50 8,2 C 6,7 C 97 % 1001,2 hPa 0,0 l/m 0 min 0 min 0,0 UV-I 0 W/m 18,0 km/h (3 Bft)
19.12.2013 06:52 8,2 C 6,7 C 97 % 1001,1 hPa 0,0 l/m 0 min 0 min 0,0 UV-I 0 W/m 15,4 km/h (3 Bft)
19.12.2013 06:54 8,2 C 6,7 C 97 % 1001,1 hPa 0,0 l/m 0 min 0 min 0,0 UV-I 0 W/m 12,9 km/h (3 Bft)
19.12.2013 06:56 8,2 C 6,7 C 97 % 1001,2 hPa 0,0 l/m 0 min 0 min 0,0 UV-I 0 W/m 18,0 km/h (3 Bft)
19.12.2013 06:58 8,2 C 6,7 C 97 % 1001,1 hPa 0,0 l/m 0 min 0 min 0,0 UV-I 0 W/m 20,6 km/h (4 Bft)
19.12.2013 07:00 8,2 C 6,7 C 97 % 1001,0 hPa 0,0 l/m 0 min 0 min 0,0 UV-I 0 W/m 15,4 km/h (3 Bft)
19.12.2013 07:02 8,2 C 6,7 C 97 % 1001,1 hPa 0,0 l/m 0 min 0 min 0,0 UV-I 0 W/m 10,3 km/h (2 Bft)
19.12.2013 07:04 8,3 C 6,7 C 97 % 1001,0 hPa 0,0 l/m 0 min 0 min 0,0 UV-I 0 W/m 23,2 km/h (4 Bft)
19.12.2013 07:06 8,3 C 6,7 C 97 % 1001,0 hPa 0,0 l/m 0 min 0 min 0,0 UV-I 0 W/m 0,0 km/h (0 Bft)
19.12.2013 07:08 8,3 C 6,7 C 97 % 1001,2 hPa 0,0 l/m 0 min 0 min 0,0 UV-I 0 W/m 18,0 km/h (3 Bft)
19.12.2013 07:10 8,3 C 6,7 C 97 % 1001,2 hPa 0,0 l/m 0 min 0 min 0,0 UV-I 0 W/m 10,3 km/h (2 Bft)
19.12.2013 07:12 8,3 C 6,7 C 97 % 1001,2 hPa 0,0 l/m 0 min 0 min 0,0 UV-I 0 W/m 7,7 km/h (2 Bft)
19.12.2013 07:14 8,3 C 6,7 C 96 % 1001,3 hPa 0,0 l/m 0 min 0 min 0,0 UV-I 0 W/m 10,3 km/h (2 Bft)
19.12.2013 07:16 8,3 C 6,7 C 96 % 1001,3 hPa 0,0 l/m 0 min 0 min 0,0 UV-I 0 W/m 7,7 km/h (2 Bft)
19.12.2013 07:18 8,3 C 6,7 C 96 % 1001,3 hPa 0,0 l/m 0 min 0 min 0,0 UV-I 0 W/m 7,7 km/h (2 Bft)
19.12.2013 07:20 8,3 C 6,7 C 96 % 1001,2 hPa 0,0 l/m 0 min 0 min 0,0 UV-I 0 W/m 18,0 km/h (3 Bft)
19.12.2013 07:22 8,3 C 6,7 C 96 % 1001,2 hPa 0,0 l/m 0 min 0 min 0,0 UV-I 0 W/m 15,4 km/h (3 Bft)
19.12.2013 07:24 8,3 C 6,7 C 96 % 1001,2 hPa 0,0 l/m 0 min 0 min 0,0 UV-I 0 W/m 5,1 km/h (1 Bft)
19.12.2013 07:26 8,3 C 6,7 C 96 % 1001,3 hPa 0,0 l/m 0 min 0 min 0,0 UV-I 0 W/m 18,0 km/h (3 Bft)
19.12.2013 07:28 8,3 C 6,7 C 96 % 1001,2 hPa 0,0 l/m 0 min 0 min 0,0 UV-I 0 W/m 10,3 km/h (2 Bft)
19.12.2013 07:30 8,3 C 6,7 C 96 % 1001,2 hPa 0,0 l/m 0 min 0 min 0,0 UV-I 0 W/m 18,0 km/h (3 Bft)
19.12.2013 07:32 8,3 C 6,7 C 96 % 1001,2 hPa 0,0 l/m 0 min 0 min 0,0 UV-I 0 W/m 12,9 km/h (3 Bft)
19.12.2013 07:34 8,3 C 6,7 C 96 % 1001,3 hPa 0,0 l/m 0 min 0 min 0,0 UV-I 0 W/m 15,4 km/h (3 Bft)
19.12.2013 07:36 8,4 C 6,7 C 96 % 1001,2 hPa 0,0 l/m 0 min 0 min 0,0 UV-I 0 W/m 12,9 km/h (3 Bft)
19.12.2013 07:38 8,4 C 6,7 C 96 % 1001,3 hPa 0,0 l/m 0 min 0 min 0,0 UV-I 0 W/m 12,9 km/h (3 Bft)
19.12.2013 07:40 8,4 C 6,7 C 96 % 1001,2 hPa 0,0 l/m 0 min 2 min 0,0 UV-I 0 W/m 12,9 km/h (3 Bft)
19.12.2013 07:42 8,4 C 6,7 C 96 % 1001,3 hPa 0,0 l/m 0 min 2 min 0,0 UV-I 0 W/m 12,9 km/h (3 Bft)
19.12.2013 07:44 8,4 C 6,7 C 96 % 1001,3 hPa 0,0 l/m 0 min 2 min 0,0 UV-I 0 W/m 7,7 km/h (2 Bft)
19.12.2013 07:46 8,5 C 6,7 C 96 % 1001,3 hPa 0,0 l/m 0 min 2 min 0,0 UV-I 0 W/m 15,4 km/h (3 Bft)
19.12.2013 07:48 8,5 C 6,7 C 96 % 1001,3 hPa 0,0 l/m 0 min 0 min 0,0 UV-I 0 W/m 12,9 km/h (3 Bft)
19.12.2013 07:50 8,5 C 6,7 C 96 % 1001,2 hPa 0,0 l/m 0 min 0 min 0,0 UV-I 0 W/m 12,9 km/h (3 Bft)
19.12.2013 07:52 8,6 C 6,7 C 96 % 1001,3 hPa 0,0 l/m 0 min 0 min 0,0 UV-I 0 W/m 12,9 km/h (3 Bft)
19.12.2013 07:54 8,6 C 6,7 C 96 % 1001,3 hPa 0,0 l/m 0 min 0 min 0,0 UV-I 0 W/m 7,7 km/h (2 Bft)
19.12.2013 07:56 8,6 C 6,7 C 96 % 1001,4 hPa 0,0 l/m 0 min 0 min 0,0 UV-I 0 W/m 7,7 km/h (2 Bft)
19.12.2013 07:58 8,6 C 6,7 C 96 % 1001,5 hPa 0,0 l/m 0 min 0 min 0,0 UV-I 0 W/m 7,7 km/h (2 Bft)
19.12.2013 08:00 8,6 C 6,7 C 96 % 1001,4 hPa 0,0 l/m 0 min 0 min 0,0 UV-I 0 W/m 7,7 km/h (2 Bft)
19.12.2013 08:02 8,7 C 6,7 C 96 % 1001,5 hPa 0,0 l/m 0 min 0 min 0,0 UV-I 0 W/m 15,4 km/h (3 Bft)
19.12.2013 08:06 8,7 C 6,7 C 96 % 1001,3 hPa 0,0 l/m 0 min 0 min 0,0 UV-I 0 W/m 20,6 km/h (4 Bft)
19.12.2013 08:08 8,7 C 6,7 C 96 % 1001,4 hPa 0,0 l/m 0 min 0 min 0,0 UV-I 0 W/m 10,3 km/h (2 Bft)
19.12.2013 08:10 8,7 C 7,2 C 96 % 1001,4 hPa 0,0 l/m 0 min 2 min 0,0 UV-I 0 W/m 15,4 km/h (3 Bft)
19.12.2013 08:12 8,7 C 7,2 C 96 % 1001,4 hPa 0,0 l/m 0 min 0 min 0,0 UV-I 0 W/m 15,4 km/h (3 Bft)
19.12.2013 08:14 8,8 C 7,2 C 96 % 1001,3 hPa 0,0 l/m 0 min 0 min 0,0 UV-I 0 W/m 18,0 km/h (3 Bft)
19.12.2013 08:16 8,8 C 7,2 C 95 % 1001,3 hPa 0,0 l/m 0 min 0 min 0,0 UV-I 0 W/m 20,6 km/h (4 Bft)
19.12.2013 08:18 8,8 C 7,2 C 95 % 1001,3 hPa 0,0 l/m 0 min 0 min 0,0 UV-I 0 W/m 20,6 km/h (4 Bft)
19.12.2013 08:20 8,9 C 7,2 C 95 % 1001,5 hPa 0,0 l/m 0 min 2 min 0,0 UV-I 0 W/m 15,4 km/h (3 Bft)
19.12.2013 08:22 8,9 C 7,2 C 95 % 1001,6 hPa 0,0 l/m 0 min 2 min 0,0 UV-I 0 W/m 18,0 km/h (3 Bft)
19.12.2013 08:24 8,9 C 7,2 C 95 % 1001,5 hPa 0,0 l/m 0 min 2 min 0,0 UV-I 0 W/m 10,3 km/h (2 Bft)
19.12.2013 08:26 9,0 C 7,2 C 95 % 1001,4 hPa 0,0 l/m 0 min 0 min 0,0 UV-I 0 W/m 15,4 km/h (3 Bft)
19.12.2013 08:28 9,0 C 7,2 C 95 % 1001,4 hPa 0,0 l/m 0 min 0 min 0,0 UV-I 0 W/m 15,4 km/h (3 Bft)
19.12.2013 08:30 9,1 C 7,2 C 95 % 1001,5 hPa 0,0 l/m 0 min 0 min 0,0 UV-I 0 W/m 15,4 km/h (3 Bft)
19.12.2013 08:32 9,1 C 7,2 C 95 % 1001,5 hPa 0,0 l/m 0 min 0 min 0,0 UV-I 0 W/m 5,1 km/h (1 Bft)
19.12.2013 08:34 9,1 C 7,2 C 94 % 1001,7 hPa 0,0 l/m 0 min 0 min 0,0 UV-I 0 W/m 18,0 km/h (3 Bft)
19.12.2013 08:36 9,1 C 7,2 C 94 % 1001,6 hPa 0,0 l/m 0 min 0 min 0,0 UV-I 0 W/m 20,6 km/h (4 Bft)
19.12.2013 08:38 9,1 C 7,2 C 94 % 1001,6 hPa 0,0 l/m 0 min 0 min 0,0 UV-I 0 W/m 18,0 km/h (3 Bft)
19.12.2013 08:40 9,2 C 7,2 C 94 % 1001,6 hPa 0,0 l/m 0 min 0 min 0,0 UV-I 0 W/m 18,0 km/h (3 Bft)
19.12.2013 08:42 9,2 C 7,2 C 94 % 1001,7 hPa 0,0 l/m 0 min 0 min 0,0 UV-I 0 W/m 18,0 km/h (3 Bft)
19.12.2013 08:44 9,2 C 7,2 C 94 % 1001,7 hPa 0,0 l/m 0 min 0 min 0,0 UV-I 0 W/m 15,4 km/h (3 Bft)
19.12.2013 08:46 9,2 C 7,2 C 94 % 1001,8 hPa 0,0 l/m 0 min 0 min 0,0 UV-I 0 W/m 10,3 km/h (2 Bft)
19.12.2013 08:48 9,2 C 7,2 C 94 % 1001,7 hPa 0,0 l/m 0 min 0 min 0,0 UV-I 0 W/m 15,4 km/h (3 Bft)
19.12.2013 08:50 9,3 C 7,2 C 93 % 1001,8 hPa 0,0 l/m 0 min 0 min 0,0 UV-I 0 W/m 15,4 km/h (3 Bft)
19.12.2013 08:52 9,3 C 7,2 C 93 % 1001,8 hPa 0,0 l/m 0 min 0 min 0,0 UV-I 0 W/m 7,7 km/h (2 Bft)
19.12.2013 08:54 9,3 C 7,2 C 93 % 1001,8 hPa 0,0 l/m 0 min 0 min 0,0 UV-I 0 W/m 18,0 km/h (3 Bft)
19.12.2013 08:56 9,3 C 7,2 C 93 % 1002,0 hPa 0,0 l/m 0 min 0 min 0,0 UV-I 0 W/m 20,6 km/h (4 Bft)
19.12.2013 08:58 9,3 C 7,2 C 93 % 1002,0 hPa 0,0 l/m 0 min 0 min 0,0 UV-I 0 W/m 7,7 km/h (2 Bft)
19.12.2013 09:00 9,4 C 7,2 C 93 % 1001,9 hPa 0,0 l/m 0 min 0 min 0,0 UV-I 0 W/m 18,0 km/h (3 Bft)
19.12.2013 09:02 9,4 C 7,2 C 93 % 1001,9 hPa 0,0 l/m 0 min 0 min 0,0 UV-I 0 W/m 12,9 km/h (3 Bft)
19.12.2013 09:06 9,4 C 7,8 C 93 % 1001,9 hPa 0,0 l/m 0 min 0 min 0,0 UV-I 5 W/m 20,6 km/h (4 Bft)
19.12.2013 09:08 9,4 C 7,8 C 92 % 1001,9 hPa 0,0 l/m 0 min 0 min 0,0 UV-I 5 W/m 15,4 km/h (3 Bft)
19.12.2013 09:10 9,5 C 7,8 C 92 % 1002,0 hPa 0,0 l/m 0 min 0 min 0,0 UV-I 0 W/m 18,0 km/h (3 Bft)
19.12.2013 09:12 9,5 C 7,8 C 92 % 1001,9 hPa 0,0 l/m 0 min 0 min 0,0 UV-I 5 W/m 18,0 km/h (3 Bft)
19.12.2013 09:14 9,5 C 7,8 C 92 % 1001,8 hPa 0,0 l/m 0 min 0 min 0,0 UV-I 5 W/m 10,3 km/h (2 Bft)
19.12.2013 09:16 9,6 C 7,8 C 92 % 1001,9 hPa 0,0 l/m 0 min 0 min 0,0 UV-I 0 W/m 20,6 km/h (4 Bft)
19.12.2013 09:18 9,6 C 7,8 C 92 % 1001,9 hPa 0,0 l/m 0 min 0 min 0,0 UV-I 0 W/m 20,6 km/h (4 Bft)
19.12.2013 09:20 9,6 C 7,8 C 92 % 1002,0 hPa 0,0 l/m 0 min 2 min 0,0 UV-I 5 W/m 15,4 km/h (3 Bft)
19.12.2013 09:22 9,6 C 7,2 C 92 % 1001,9 hPa 0,2 l/m 0 min 2 min 0,0 UV-I 7 W/m 18,0 km/h (3 Bft)
19.12.2013 09:24 9,7 C 7,2 C 92 % 1001,9 hPa 0,0 l/m 0 min 2 min 0,0 UV-I 7 W/m 12,9 km/h (3 Bft)
19.12.2013 09:26 9,7 C 7,2 C 92 % 1002,0 hPa 0,0 l/m 0 min 2 min 0,0 UV-I 7 W/m 15,4 km/h (3 Bft)
19.12.2013 09:28 9,7 C 7,2 C 92 % 1002,0 hPa 0,2 l/m 0 min 2 min 0,0 UV-I 5 W/m 12,9 km/h (3 Bft)
19.12.2013 09:30 9,7 C 7,2 C 92 % 1002,0 hPa 0,0 l/m 0 min 2 min 0,0 UV-I 5 W/m 12,9 km/h (3 Bft)
19.12.2013 09:32 9,7 C 7,2 C 92 % 1002,2 hPa 0,0 l/m 0 min 2 min 0,0 UV-I 0 W/m 7,7 km/h (2 Bft)
19.12.2013 09:34 9,6 C 7,2 C 92 % 1002,2 hPa 0,2 l/m 0 min 2 min 0,0 UV-I 0 W/m 7,7 km/h (2 Bft)
19.12.2013 09:36 9,6 C 7,2 C 92 % 1002,3 hPa 0,0 l/m 0 min 2 min 0,0 UV-I 0 W/m 7,7 km/h (2 Bft)
19.12.2013 09:38 9,6 C 7,2 C 92 % 1002,3 hPa 0,2 l/m 0 min 2 min 0,0 UV-I 0 W/m 10,3 km/h (2 Bft)
19.12.2013 09:40 9,5 C 7,2 C 92 % 1002,2 hPa 0,2 l/m 0 min 2 min 0,0 UV-I 0 W/m 25,7 km/h (4 Bft)
19.12.2013 09:42 9,4 C 7,2 C 93 % 1002,4 hPa 0,0 l/m 0 min 2 min 0,0 UV-I 0 W/m 20,6 km/h (4 Bft)
19.12.2013 09:44 9,4 C 7,2 C 93 % 1002,5 hPa 0,0 l/m 0 min 2 min 0,0 UV-I 0 W/m 15,4 km/h (3 Bft)
19.12.2013 09:46 9,4 C 7,2 C 93 % 1002,5 hPa 0,0 l/m 0 min 2 min 0,0 UV-I 0 W/m 5,1 km/h (1 Bft)
19.12.2013 09:48 9,3 C 7,2 C 93 % 1002,4 hPa 0,0 l/m 0 min 2 min 0,0 UV-I 0 W/m 7,7 km/h (2 Bft)
19.12.2013 09:50 9,3 C 7,2 C 93 % 1002,6 hPa 0,2 l/m 0 min 2 min 0,0 UV-I 0 W/m 18,0 km/h (3 Bft)
19.12.2013 09:52 9,2 C 7,2 C 93 % 1002,6 hPa 0,0 l/m 0 min 2 min 0,0 UV-I 0 W/m 10,3 km/h (2 Bft)
19.12.2013 09:54 9,2 C 7,2 C 93 % 1002,6 hPa 0,0 l/m 0 min 2 min 0,0 UV-I 0 W/m 18,0 km/h (3 Bft)
19.12.2013 09:56 9,2 C 7,2 C 93 % 1002,6 hPa 0,0 l/m 0 min 2 min 0,0 UV-I 0 W/m 15,4 km/h (3 Bft)
19.12.2013 09:58 9,1 C 6,7 C 93 % 1002,8 hPa 0,2 l/m 0 min 2 min 0,0 UV-I 0 W/m 23,2 km/h (4 Bft)
19.12.2013 10:00 9,0 C 6,7 C 93 % 1002,7 hPa 0,0 l/m 0 min 2 min 0,0 UV-I 0 W/m 23,2 km/h (4 Bft)
19.12.2013 10:02 9,0 C 6,7 C 93 % 1002,7 hPa 0,0 l/m 0 min 2 min 0,0 UV-I 5 W/m 15,4 km/h (3 Bft)
19.12.2013 10:06 8,9 C 6,7 C 93 % 1002,9 hPa 0,0 l/m 0 min 2 min 0,0 UV-I 5 W/m 18,0 km/h (3 Bft)
19.12.2013 10:08 8,9 C 6,7 C 93 % 1002,9 hPa 0,0 l/m 0 min 0 min 0,0 UV-I 7 W/m 15,4 km/h (3 Bft)
19.12.2013 10:10 8,8 C 6,7 C 93 % 1003,0 hPa 0,0 l/m 0 min 2 min 0,0 UV-I 7 W/m 10,3 km/h (2 Bft)
19.12.2013 10:12 8,8 C 6,7 C 93 % 1003,1 hPa 0,0 l/m 0 min 0 min 0,0 UV-I 7 W/m 18,0 km/h (3 Bft)
19.12.2013 10:14 8,8 C 6,7 C 93 % 1003,1 hPa 0,0 l/m 0 min 0 min 0,0 UV-I 9 W/m 18,0 km/h (3 Bft)
19.12.2013 10:16 8,8 C 6,7 C 93 % 1003,0 hPa 0,0 l/m 0 min 0 min 0,0 UV-I 12 W/m 18,0 km/h (3 Bft)
19.12.2013 10:18 8,8 C 6,7 C 93 % 1003,1 hPa 0,0 l/m 0 min 0 min 0,0 UV-I 21 W/m 10,3 km/h (2 Bft)
19.12.2013 10:20 8,8 C 6,7 C 93 % 1003,1 hPa 0,0 l/m 0 min 0 min 0,0 UV-I 21 W/m 7,7 km/h (2 Bft)
19.12.2013 10:22 8,8 C 6,7 C 94 % 1003,3 hPa 0,0 l/m 0 min 0 min 0,0 UV-I 21 W/m 5,1 km/h (1 Bft)
19.12.2013 10:24 8,8 C 6,7 C 94 % 1003,3 hPa 0,0 l/m 0 min 0 min 0,0 UV-I 28 W/m 12,9 km/h (3 Bft)
19.12.2013 10:26 8,7 C 6,7 C 94 % 1003,3 hPa 0,0 l/m 0 min 0 min 0,0 UV-I 44 W/m 15,4 km/h (3 Bft)
19.12.2013 10:28 8,7 C 6,7 C 94 % 1003,3 hPa 0,0 l/m 0 min 0 min 0,0 UV-I 53 W/m 10,3 km/h (2 Bft)
19.12.2013 10:30 8,7 C 6,7 C 94 % 1003,4 hPa 0,0 l/m 0 min 0 min 0,0 UV-I 56 W/m 10,3 km/h (2 Bft)
19.12.2013 10:32 8,7 C 6,7 C 94 % 1003,4 hPa 0,0 l/m 0 min 0 min 0,0 UV-I 69 W/m 15,4 km/h (3 Bft)
19.12.2013 10:34 8,7 C 6,7 C 94 % 1003,3 hPa 0,0 l/m 0 min 0 min 0,0 UV-I 46 W/m 12,9 km/h (3 Bft)
19.12.2013 10:36 8,7 C 6,7 C 94 % 1003,4 hPa 0,0 l/m 0 min 0 min 0,0 UV-I 83 W/m 7,7 km/h (2 Bft)
19.12.2013 10:38 8,7 C 6,7 C 94 % 1003,3 hPa 0,0 l/m 0 min 0 min 0,0 UV-I 79 W/m 5,1 km/h (1 Bft)
19.12.2013 10:40 8,8 C 7,2 C 94 % 1003,4 hPa 0,0 l/m 0 min 0 min 0,0 UV-I 74 W/m 30,9 km/h (5 Bft)
19.12.2013 10:42 8,8 C 7,2 C 94 % 1003,5 hPa 0,0 l/m 0 min 0 min 0,0 UV-I 84 W/m 18,0 km/h (3 Bft)
19.12.2013 10:44 8,8 C 7,2 C 94 % 1003,4 hPa 0,0 l/m 0 min 0 min 0,0 UV-I 69 W/m 30,9 km/h (5 Bft)
19.12.2013 10:46 8,8 C 7,2 C 94 % 1003,5 hPa 0,0 l/m 0 min 0 min 0,0 UV-I 79 W/m 25,7 km/h (4 Bft)
19.12.2013 10:48 8,9 C 7,2 C 94 % 1003,6 hPa 0,0 l/m 0 min 0 min 0,0 UV-I 74 W/m 28,3 km/h (4 Bft)
19.12.2013 10:50 8,9 C 7,2 C 94 % 1003,5 hPa 0,0 l/m 0 min 0 min 0,0 UV-I 93 W/m 15,4 km/h (3 Bft)
19.12.2013 10:52 9,0 C 7,2 C 94 % 1003,5 hPa 0,0 l/m 0 min 0 min 0,0 UV-I 67 W/m 12,9 km/h (3 Bft)
19.12.2013 10:54 9,1 C 7,2 C 94 % 1003,6 hPa 0,0 l/m 0 min 0 min 0,0 UV-I 47 W/m 18,0 km/h (3 Bft)
19.12.2013 10:56 9,1 C 7,2 C 94 % 1003,6 hPa 0,0 l/m 0 min 0 min 0,0 UV-I 42 W/m 12,9 km/h (3 Bft)
19.12.2013 10:58 9,2 C 7,2 C 93 % 1003,6 hPa 0,0 l/m 0 min 0 min 0,0 UV-I 42 W/m 20,6 km/h (4 Bft)
19.12.2013 11:00 9,2 C 7,2 C 93 % 1003,6 hPa 0,0 l/m 0 min 0 min 0,0 UV-I 46 W/m 15,4 km/h (3 Bft)
19.12.2013 11:02 9,2 C 7,2 C 93 % 1003,7 hPa 0,0 l/m 0 min 0 min 0,0 UV-I 44 W/m 15,4 km/h (3 Bft)
19.12.2013 11:06 9,2 C 7,2 C 93 % 1003,6 hPa 0,0 l/m 0 min 0 min 0,0 UV-I 51 W/m 12,9 km/h (3 Bft)
19.12.2013 11:08 9,3 C 7,2 C 92 % 1003,6 hPa 0,0 l/m 0 min 0 min 0,0 UV-I 56 W/m 18,0 km/h (3 Bft)
19.12.2013 11:10 9,3 C 7,2 C 92 % 1003,6 hPa 0,0 l/m 0 min 0 min 0,0 UV-I 60 W/m 20,6 km/h (4 Bft)
19.12.2013 11:12 9,3 C 7,2 C 92 % 1003,7 hPa 0,0 l/m 0 min 0 min 0,0 UV-I 69 W/m 10,3 km/h (2 Bft)
19.12.2013 11:14 9,3 C 7,8 C 91 % 1003,8 hPa 0,0 l/m 0 min 0 min 0,0 UV-I 62 W/m 18,0 km/h (3 Bft)
19.12.2013 11:16 9,4 C 7,8 C 91 % 1003,7 hPa 0,0 l/m 0 min 0 min 0,0 UV-I 100 W/m 15,4 km/h (3 Bft)
19.12.2013 11:18 9,4 C 7,8 C 91 % 1003,8 hPa 0,0 l/m 0 min 0 min 0,0 UV-I 105 W/m 20,6 km/h (4 Bft)
19.12.2013 11:20 9,4 C 7,8 C 90 % 1003,9 hPa 0,0 l/m 0 min 0 min 0,0 UV-I 98 W/m 20,6 km/h (4 Bft)
19.12.2013 11:22 9,5 C 7,8 C 90 % 1003,8 hPa 0,0 l/m 0 min 0 min 0,0 UV-I 100 W/m 18,0 km/h (3 Bft)
19.12.2013 11:24 9,6 C 7,8 C 90 % 1003,8 hPa 0,0 l/m 2 min 0 min 0,0 UV-I 169 W/m 12,9 km/h (3 Bft)
19.12.2013 11:26 9,7 C 7,8 C 90 % 1003,8 hPa 0,0 l/m 2 min 0 min 0,0 UV-I 239 W/m 25,7 km/h (4 Bft)
19.12.2013 11:28 9,7 C 7,8 C 90 % 1003,7 hPa 0,0 l/m 2 min 0 min 0,0 UV-I 200 W/m 23,2 km/h (4 Bft)
19.12.2013 11:30 9,8 C 7,8 C 90 % 1003,8 hPa 0,0 l/m 2 min 0 min 0,0 UV-I 207 W/m 15,4 km/h (3 Bft)
19.12.2013 11:32 9,9 C 7,8 C 89 % 1003,8 hPa 0,0 l/m 0 min 0 min 0,0 UV-I 120 W/m 23,2 km/h (4 Bft)
19.12.2013 11:34 9,9 C 7,8 C 89 % 1003,8 hPa 0,0 l/m 2 min 0 min 0,0 UV-I 209 W/m 15,4 km/h (3 Bft)
19.12.2013 11:36 9,9 C 7,8 C 88 % 1003,6 hPa 0,0 l/m 2 min 0 min 0,0 UV-I 162 W/m 20,6 km/h (4 Bft)
19.12.2013 11:38 9,9 C 7,8 C 88 % 1003,7 hPa 0,0 l/m 0 min 0 min 0,0 UV-I 100 W/m 15,4 km/h (3 Bft)
19.12.2013 11:40 9,9 C 8,3 C 88 % 1003,8 hPa 0,0 l/m 2 min 0 min 0,0 UV-I 142 W/m 23,2 km/h (4 Bft)
19.12.2013 11:42 9,9 C 8,3 C 88 % 1003,7 hPa 0,0 l/m 2 min 0 min 0,0 UV-I 258 W/m 30,9 km/h (5 Bft)
19.12.2013 11:44 10,0 C 8,3 C 88 % 1003,7 hPa 0,0 l/m 2 min 0 min 0,0 UV-I 246 W/m 18,0 km/h (3 Bft)
19.12.2013 11:46 10,1 C 7,8 C 88 % 1003,6 hPa 0,0 l/m 0 min 2 min 0,0 UV-I 33 W/m 28,3 km/h (4 Bft)
19.12.2013 11:48 10,0 C 7,2 C 88 % 1003,8 hPa 0,0 l/m 0 min 2 min 0,0 UV-I 21 W/m 20,6 km/h (4 Bft)
19.12.2013 11:50 9,9 C 7,2 C 88 % 1004,0 hPa 0,0 l/m 0 min 2 min 0,0 UV-I 16 W/m 28,3 km/h (4 Bft)
19.12.2013 11:52 9,8 C 7,2 C 89 % 1004,1 hPa 0,0 l/m 0 min 2 min 0,0 UV-I 12 W/m 10,3 km/h (2 Bft)
19.12.2013 11:54 9,7 C 7,2 C 89 % 1004,2 hPa 0,0 l/m 0 min 2 min 0,0 UV-I 23 W/m 28,3 km/h (4 Bft)
19.12.2013 11:56 9,6 C 7,2 C 89 % 1004,4 hPa 0,0 l/m 0 min 2 min 0,0 UV-I 39 W/m 25,7 km/h (4 Bft)
19.12.2013 11:58 9,5 C 6,7 C 89 % 1004,3 hPa 0,0 l/m 0 min 2 min 0,0 UV-I 32 W/m 20,6 km/h (4 Bft)
19.12.2013 12:00 9,4 C 6,7 C 89 % 1004,3 hPa 0,0 l/m 0 min 2 min 0,0 UV-I 25 W/m 12,9 km/h (3 Bft)
19.12.2013 12:02 9,3 C 6,7 C 89 % 1004,3 hPa 0,0 l/m 0 min 0 min 0,0 UV-I 26 W/m 15,4 km/h (3 Bft)
19.12.2013 12:06 9,1 C 6,7 C 88 % 1004,3 hPa 0,0 l/m 0 min 0 min 0,0 UV-I 35 W/m 15,4 km/h (3 Bft)
19.12.2013 12:08 8,9 C 6,7 C 89 % 1004,4 hPa 0,0 l/m 0 min 0 min 0,0 UV-I 46 W/m 15,4 km/h (3 Bft)
19.12.2013 12:10 8,8 C 6,7 C 89 % 1004,4 hPa 0,0 l/m 0 min 0 min 0,0 UV-I 49 W/m 10,3 km/h (2 Bft)
19.12.2013 12:12 8,7 C 6,7 C 89 % 1004,5 hPa 0,0 l/m 0 min 0 min 0,0 UV-I 56 W/m 15,4 km/h (3 Bft)
19.12.2013 12:14 8,6 C 6,7 C 89 % 1004,6 hPa 0,0 l/m 0 min 0 min 0,0 UV-I 63 W/m 12,9 km/h (3 Bft)
19.12.2013 12:16 8,6 C 6,7 C 89 % 1004,6 hPa 0,0 l/m 0 min 0 min 0,0 UV-I 56 W/m 10,3 km/h (2 Bft)
19.12.2013 12:18 8,4 C 6,7 C 90 % 1004,6 hPa 0,0 l/m 0 min 0 min 0,0 UV-I 44 W/m 20,6 km/h (4 Bft)
19.12.2013 12:20 8,4 C 6,1 C 90 % 1004,7 hPa 0,0 l/m 0 min 2 min 0,0 UV-I 44 W/m 18,0 km/h (3 Bft)
19.12.2013 12:22 8,3 C 6,1 C 90 % 1004,7 hPa 0,0 l/m 0 min 2 min 0,0 UV-I 81 W/m 10,3 km/h (2 Bft)
19.12.2013 12:24 8,3 C 6,1 C 90 % 1004,5 hPa 0,2 l/m 0 min 2 min 0,0 UV-I 62 W/m 28,3 km/h (4 Bft)
19.12.2013 12:26 8,3 C 6,1 C 90 % 1004,5 hPa 0,0 l/m 0 min 2 min 0,0 UV-I 54 W/m 18,0 km/h (3 Bft)
19.12.2013 12:28 8,2 C 6,1 C 90 % 1004,7 hPa 0,0 l/m 0 min 0 min 0,0 UV-I 53 W/m 18,0 km/h (3 Bft)
19.12.2013 12:30 8,2 C 6,1 C 90 % 1004,8 hPa 0,0 l/m 0 min 2 min 0,0 UV-I 60 W/m 10,3 km/h (2 Bft)
19.12.2013 12:32 8,2 C 6,1 C 90 % 1004,8 hPa 0,0 l/m 0 min 2 min 0,0 UV-I 62 W/m 10,3 km/h (2 Bft)
19.12.2013 12:34 8,2 C 6,1 C 90 % 1004,8 hPa 0,0 l/m 0 min 2 min 0,0 UV-I 58 W/m 20,6 km/h (4 Bft)
19.12.2013 12:36 8,2 C 6,1 C 90 % 1004,7 hPa 0,0 l/m 0 min 2 min 0,0 UV-I 67 W/m 15,4 km/h (3 Bft)
19.12.2013 12:38 8,2 C 6,7 C 91 % 1004,7 hPa 0,0 l/m 0 min 2 min 0,0 UV-I 134 W/m 12,9 km/h (3 Bft)
19.12.2013 12:40 8,2 C 6,7 C 91 % 1004,7 hPa 0,0 l/m 0 min 2 min 0,0 UV-I 105 W/m 7,7 km/h (2 Bft)
19.12.2013 12:42 8,2 C 6,7 C 91 % 1004,8 hPa 0,0 l/m 0 min 0 min 0,0 UV-I 79 W/m 12,9 km/h (3 Bft)
19.12.2013 12:44 8,2 C 6,7 C 91 % 1005,0 hPa 0,0 l/m 0 min 2 min 0,0 UV-I 91 W/m 15,4 km/h (3 Bft)
19.12.2013 12:46 8,2 C 6,7 C 91 % 1005,0 hPa 0,0 l/m 0 min 2 min 0,0 UV-I 84 W/m 15,4 km/h (3 Bft)
19.12.2013 12:48 8,2 C 6,7 C 91 % 1004,7 hPa 0,0 l/m 0 min 0 min 0,0 UV-I 86 W/m 12,9 km/h (3 Bft)
19.12.2013 12:50 8,2 C 6,7 C 92 % 1004,7 hPa 0,0 l/m 0 min 0 min 0,0 UV-I 95 W/m 5,1 km/h (1 Bft)
19.12.2013 12:52 8,2 C 6,7 C 92 % 1004,7 hPa 0,0 l/m 0 min 0 min 0,0 UV-I 79 W/m 12,9 km/h (3 Bft)
19.12.2013 12:54 8,2 C 6,7 C 91 % 1004,8 hPa 0,0 l/m 0 min 2 min 0,0 UV-I 77 W/m 18,0 km/h (3 Bft)
19.12.2013 12:56 8,2 C 6,7 C 91 % 1004,8 hPa 0,0 l/m 0 min 0 min 0,0 UV-I 90 W/m 12,9 km/h (3 Bft)
19.12.2013 12:58 8,2 C 6,7 C 91 % 1004,9 hPa 0,0 l/m 0 min 0 min 0,0 UV-I 88 W/m 18,0 km/h (3 Bft)
19.12.2013 13:00 8,2 C 6,7 C 91 % 1004,9 hPa 0,0 l/m 0 min 0 min 0,0 UV-I 77 W/m 2,6 km/h (1 Bft)
19.12.2013 13:02 8,2 C 6,7 C 91 % 1005,0 hPa 0,0 l/m 0 min 0 min 0,0 UV-I 76 W/m 10,3 km/h (2 Bft)
19.12.2013 13:06 8,3 C 6,7 C 92 % 1005,0 hPa 0,0 l/m 0 min 0 min 0,0 UV-I 107 W/m 12,9 km/h (3 Bft)
19.12.2013 13:08 8,3 C 6,7 C 92 % 1005,2 hPa 0,0 l/m 2 min 0 min 0,0 UV-I 153 W/m 5,1 km/h (1 Bft)
19.12.2013 13:10 8,3 C 7,2 C 92 % 1005,4 hPa 0,0 l/m 2 min 0 min 0,0 UV-I 214 W/m 12,9 km/h (3 Bft)
19.12.2013 13:12 8,4 C 7,2 C 92 % 1005,4 hPa 0,0 l/m 2 min 0 min 0,0 UV-I 188 W/m 10,3 km/h (2 Bft)
19.12.2013 13:14 8,5 C 7,2 C 91 % 1005,2 hPa 0,0 l/m 0 min 0 min 0,0 UV-I 107 W/m 12,9 km/h (3 Bft)
19.12.2013 13:16 8,5 C 6,7 C 91 % 1005,3 hPa 0,0 l/m 0 min 0 min 0,0 UV-I 84 W/m 10,3 km/h (2 Bft)
19.12.2013 13:18 8,5 C 6,7 C 91 % 1005,4 hPa 0,0 l/m 0 min 0 min 0,0 UV-I 65 W/m 10,3 km/h (2 Bft)
19.12.2013 13:20 8,4 C 6,7 C 90 % 1005,4 hPa 0,0 l/m 0 min 0 min 0,0 UV-I 84 W/m 20,6 km/h (4 Bft)
19.12.2013 13:22 8,4 C 6,7 C 90 % 1005,4 hPa 0,0 l/m 2 min 0 min 0,0 UV-I 160 W/m 10,3 km/h (2 Bft)
19.12.2013 13:24 8,5 C 6,7 C 90 % 1005,5 hPa 0,0 l/m 2 min 0 min 0,0 UV-I 156 W/m 7,7 km/h (2 Bft)
19.12.2013 13:26 8,6 C 6,7 C 90 % 1005,5 hPa 0,0 l/m 0 min 0 min 0,0 UV-I 100 W/m 5,1 km/h (1 Bft)
19.12.2013 13:28 8,6 C 6,7 C 90 % 1005,5 hPa 0,0 l/m 0 min 0 min 0,0 UV-I 102 W/m 10,3 km/h (2 Bft)
19.12.2013 13:30 8,6 C 6,7 C 89 % 1005,5 hPa 0,0 l/m 0 min 0 min 0,0 UV-I 114 W/m 25,7 km/h (4 Bft)
19.12.2013 13:32 8,6 C 6,7 C 89 % 1005,6 hPa 0,0 l/m 2 min 0 min 0,0 UV-I 146 W/m 25,7 km/h (4 Bft)
19.12.2013 13:34 8,7 C 7,2 C 89 % 1005,6 hPa 0,0 l/m 2 min 0 min 0,0 UV-I 211 W/m 10,3 km/h (2 Bft)
19.12.2013 13:36 8,7 C 7,2 C 89 % 1005,6 hPa 0,0 l/m 2 min 0 min 0,0 UV-I 204 W/m 15,4 km/h (3 Bft)
19.12.2013 13:38 8,8 C 7,2 C 89 % 1005,6 hPa 0,0 l/m 2 min 0 min 0,0 UV-I 158 W/m 18,0 km/h (3 Bft)
19.12.2013 13:40 8,9 C 7,2 C 88 % 1005,6 hPa 0,0 l/m 0 min 0 min 0,0 UV-I 113 W/m 12,9 km/h (3 Bft)
19.12.2013 13:42 8,9 C 7,2 C 88 % 1005,6 hPa 0,0 l/m 2 min 0 min 0,0 UV-I 207 W/m 12,9 km/h (3 Bft)
19.12.2013 13:44 8,9 C 7,2 C 87 % 1005,6 hPa 0,0 l/m 0 min 0 min 0,0 UV-I 127 W/m 18,0 km/h (3 Bft)
19.12.2013 13:46 8,8 C 6,7 C 87 % 1005,6 hPa 0,0 l/m 2 min 0 min 0,0 UV-I 165 W/m 20,6 km/h (4 Bft)
19.12.2013 13:48 8,8 C 6,7 C 87 % 1005,6 hPa 0,0 l/m 0 min 0 min 0,0 UV-I 40 W/m 20,6 km/h (4 Bft)
19.12.2013 13:50 8,7 C 6,7 C 87 % 1005,6 hPa 0,0 l/m 0 min 0 min 0,0 UV-I 46 W/m 12,9 km/h (3 Bft)
19.12.2013 13:52 8,7 C 6,7 C 87 % 1005,7 hPa 0,0 l/m 0 min 0 min 0,0 UV-I 44 W/m 18,0 km/h (3 Bft)
19.12.2013 13:54 8,6 C 6,7 C 86 % 1005,7 hPa 0,0 l/m 0 min 0 min 0,0 UV-I 42 W/m 12,9 km/h (3 Bft)
19.12.2013 13:56 8,6 C 6,7 C 86 % 1005,7 hPa 0,0 l/m 0 min 0 min 0,0 UV-I 46 W/m 20,6 km/h (4 Bft)
19.12.2013 13:58 8,5 C 6,7 C 87 % 1005,7 hPa 0,0 l/m 0 min 0 min 0,0 UV-I 49 W/m 7,7 km/h (2 Bft)
19.12.2013 14:00 8,5 C 6,7 C 87 % 1005,8 hPa 0,0 l/m 0 min 0 min 0,0 UV-I 53 W/m 2,6 km/h (1 Bft)
19.12.2013 14:02 8,4 C 6,7 C 87 % 1005,8 hPa 0,0 l/m 0 min 0 min 0,0 UV-I 44 W/m 12,9 km/h (3 Bft)
19.12.2013 14:06 8,4 C 6,7 C 87 % 1005,7 hPa 0,0 l/m 0 min 0 min 0,0 UV-I 54 W/m 12,9 km/h (3 Bft)
19.12.2013 14:08 8,4 C 6,7 C 87 % 1005,7 hPa 0,0 l/m 0 min 0 min 0,0 UV-I 56 W/m 10,3 km/h (2 Bft)
19.12.2013 14:10 8,4 C 6,7 C 88 % 1005,7 hPa 0,0 l/m 0 min 0 min 0,0 UV-I 58 W/m 10,3 km/h (2 Bft)
19.12.2013 14:12 8,4 C 6,7 C 88 % 1005,8 hPa 0,0 l/m 0 min 0 min 0,0 UV-I 54 W/m 10,3 km/h (2 Bft)
19.12.2013 14:14 8,4 C 6,7 C 88 % 1005,8 hPa 0,0 l/m 0 min 0 min 0,0 UV-I 51 W/m 2,6 km/h (1 Bft)
19.12.2013 14:16 8,4 C 6,7 C 88 % 1005,7 hPa 0,0 l/m 0 min 0 min 0,0 UV-I 51 W/m 15,4 km/h (3 Bft)
19.12.2013 14:18 8,5 C 6,7 C 88 % 1005,8 hPa 0,0 l/m 0 min 0 min 0,0 UV-I 47 W/m 2,6 km/h (1 Bft)
19.12.2013 14:20 8,5 C 6,7 C 88 % 1005,8 hPa 0,0 l/m 0 min 0 min 0,0 UV-I 53 W/m 2,6 km/h (1 Bft)
19.12.2013 14:22 8,5 C 7,2 C 88 % 1005,9 hPa 0,0 l/m 0 min 0 min 0,0 UV-I 56 W/m 2,6 km/h (1 Bft)
19.12.2013 14:24 8,5 C 7,2 C 88 % 1005,9 hPa 0,0 l/m 0 min 0 min 0,0 UV-I 37 W/m 5,1 km/h (1 Bft)
19.12.2013 14:26 8,5 C 7,2 C 88 % 1006,0 hPa 0,0 l/m 0 min 0 min 0,0 UV-I 33 W/m 7,7 km/h (2 Bft)
19.12.2013 14:28 8,5 C 7,2 C 88 % 1006,0 hPa 0,0 l/m 0 min 0 min 0,0 UV-I 30 W/m 5,1 km/h (1 Bft)
19.12.2013 14:30 8,5 C 7,2 C 88 % 1006,1 hPa 0,0 l/m 0 min 0 min 0,0 UV-I 35 W/m 12,9 km/h (3 Bft)
19.12.2013 14:32 8,5 C 6,7 C 88 % 1006,1 hPa 0,0 l/m 0 min 0 min 0,0 UV-I 33 W/m 10,3 km/h (2 Bft)
19.12.2013 14:34 8,5 C 6,7 C 88 % 1006,1 hPa 0,0 l/m 0 min 0 min 0,0 UV-I 28 W/m 10,3 km/h (2 Bft)
19.12.2013 14:36 8,5 C 6,7 C 88 % 1006,2 hPa 0,0 l/m 0 min 0 min 0,0 UV-I 37 W/m 10,3 km/h (2 Bft)
19.12.2013 14:38 8,5 C 6,7 C 88 % 1006,2 hPa 0,0 l/m 0 min 0 min 0,0 UV-I 33 W/m 7,7 km/h (2 Bft)
19.12.2013 14:40 8,5 C 7,2 C 88 % 1006,2 hPa 0,0 l/m 0 min 0 min 0,0 UV-I 35 W/m 7,7 km/h (2 Bft)
19.12.2013 14:42 8,5 C 6,7 C 88 % 1006,2 hPa 0,0 l/m 0 min 0 min 0,0 UV-I 32 W/m 0,0 km/h (0 Bft)
19.12.2013 14:44 8,5 C 7,2 C 88 % 1006,2 hPa 0,0 l/m 0 min 0 min 0,0 UV-I 47 W/m 2,6 km/h (1 Bft)
19.12.2013 14:46 8,5 C 7,2 C 89 % 1006,3 hPa 0,0 l/m 0 min 0 min 0,0 UV-I 53 W/m 12,9 km/h (3 Bft)
19.12.2013 14:48 8,5 C 7,2 C 89 % 1006,2 hPa 0,0 l/m 0 min 0 min 0,0 UV-I 46 W/m 10,3 km/h (2 Bft)
19.12.2013 14:50 8,5 C 7,2 C 89 % 1006,3 hPa 0,0 l/m 0 min 0 min 0,0 UV-I 53 W/m 5,1 km/h (1 Bft)
19.12.2013 14:52 8,5 C 7,2 C 88 % 1006,2 hPa 0,0 l/m 0 min 0 min 0,0 UV-I 47 W/m 5,1 km/h (1 Bft)
19.12.2013 14:54 8,6 C 7,2 C 88 % 1006,3 hPa 0,0 l/m 0 min 0 min 0,0 UV-I 58 W/m 12,9 km/h (3 Bft)
19.12.2013 14:56 8,6 C 7,2 C 88 % 1006,3 hPa 0,0 l/m 0 min 0 min 0,0 UV-I 63 W/m 5,1 km/h (1 Bft)
19.12.2013 14:58 8,5 C 7,2 C 88 % 1006,4 hPa 0,0 l/m 0 min 0 min 0,0 UV-I 63 W/m 12,9 km/h (3 Bft)
19.12.2013 15:00 8,6 C 7,2 C 88 % 1006,4 hPa 0,0 l/m 0 min 0 min 0,0 UV-I 72 W/m 2,6 km/h (1 Bft)
19.12.2013 15:02 8,6 C 7,2 C 88 % 1006,4 hPa 0,0 l/m 0 min 0 min 0,0 UV-I 51 W/m 0,0 km/h (0 Bft)
19.12.2013 15:04 8,5 C 7,2 C 88 % 1006,4 hPa 0,0 l/m 0 min 0 min 0,0 UV-I 44 W/m 0,0 km/h (0 Bft)
19.12.2013 15:06 8,5 C 7,2 C 88 % 1006,4 hPa 0,0 l/m 0 min 0 min 0,0 UV-I 37 W/m 0,0 km/h (0 Bft)
19.12.2013 15:08 8,5 C 7,2 C 88 % 1006,4 hPa 0,0 l/m 0 min 0 min 0,0 UV-I 33 W/m 10,3 km/h (2 Bft)
19.12.2013 15:10 8,5 C 6,7 C 88 % 1006,4 hPa 0,0 l/m 0 min 0 min 0,0 UV-I 23 W/m 2,6 km/h (1 Bft)
19.12.2013 15:12 8,4 C 6,7 C 88 % 1006,5 hPa 0,0 l/m 0 min 0 min 0,0 UV-I 18 W/m 0,0 km/h (0 Bft)
19.12.2013 15:14 8,4 C 6,7 C 88 % 1006,5 hPa 0,0 l/m 0 min 0 min 0,0 UV-I 16 W/m 0,0 km/h (0 Bft)
19.12.2013 15:15 8,4 C 6,7 C 88 % 1006,5 hPa 0,0 l/m 0 min 0 min 0,0 UV-I 18 W/m 0,0 km/h (0 Bft)
19.12.2013 15:20 8,4 C 6,7 C 88 % 1006,6 hPa 0,0 l/m 0 min 0 min 0,0 UV-I 11 W/m 0,0 km/h (0 Bft)
19.12.2013 15:22 8,4 C 6,7 C 88 % 1006,6 hPa 0,0 l/m 0 min 0 min 0,0 UV-I 12 W/m 0,0 km/h (0 Bft)
19.12.2013 15:24 8,4 C 6,7 C 88 % 1006,6 hPa 0,0 l/m 0 min 0 min 0,0 UV-I 12 W/m 0,0 km/h (0 Bft)
19.12.2013 15:26 8,4 C 6,7 C 88 % 1006,6 hPa 0,0 l/m 0 min 0 min 0,0 UV-I 14 W/m 0,0 km/h (0 Bft)
19.12.2013 15:28 8,4 C 6,7 C 88 % 1006,6 hPa 0,0 l/m 0 min 0 min 0,0 UV-I 16 W/m 0,0 km/h (0 Bft)
19.12.2013 15:30 8,4 C 6,7 C 88 % 1006,6 hPa 0,0 l/m 0 min 0 min 0,0 UV-I 14 W/m 0,0 km/h (0 Bft)
19.12.2013 15:32 8,4 C 6,7 C 88 % 1006,7 hPa 0,0 l/m 0 min 0 min 0,0 UV-I 12 W/m 0,0 km/h (0 Bft)
19.12.2013 15:34 8,4 C 6,7 C 89 % 1006,6 hPa 0,0 l/m 0 min 0 min 0,0 UV-I 18 W/m 0,0 km/h (0 Bft)
19.12.2013 15:36 8,4 C 6,7 C 89 % 1006,6 hPa 0,0 l/m 0 min 0 min 0,0 UV-I 18 W/m 0,0 km/h (0 Bft)
19.12.2013 15:38 8,4 C 6,7 C 89 % 1006,6 hPa 0,0 l/m 0 min 0 min 0,0 UV-I 19 W/m 0,0 km/h (0 Bft)
19.12.2013 15:40 8,4 C 6,7 C 89 % 1006,7 hPa 0,0 l/m 0 min 0 min 0,0 UV-I 37 W/m 0,0 km/h (0 Bft)
19.12.2013 15:42 8,4 C 6,7 C 89 % 1006,8 hPa 0,0 l/m 0 min 0 min 0,0 UV-I 37 W/m 0,0 km/h (0 Bft)
19.12.2013 15:44 8,4 C 6,7 C 89 % 1006,9 hPa 0,0 l/m 0 min 0 min 0,0 UV-I 35 W/m 0,0 km/h (0 Bft)
19.12.2013 15:46 8,3 C 6,1 C 89 % 1007,0 hPa 0,0 l/m 0 min 0 min 0,0 UV-I 35 W/m 0,0 km/h (0 Bft)
19.12.2013 15:48 8,3 C 6,1 C 89 % 1007,0 hPa 0,0 l/m 2 min 0 min 0,0 UV-I 47 W/m 0,0 km/h (0 Bft)
19.12.2013 15:50 8,3 C 6,7 C 89 % 1007,1 hPa 0,0 l/m 2 min 0 min 0,0 UV-I 47 W/m 0,0 km/h (0 Bft)
19.12.2013 15:52 8,3 C 6,7 C 89 % 1007,2 hPa 0,0 l/m 2 min 0 min 0,0 UV-I 39 W/m 0,0 km/h (0 Bft)
19.12.2013 15:54 8,2 C 6,7 C 89 % 1007,2 hPa 0,0 l/m 2 min 0 min 0,0 UV-I 35 W/m 0,0 km/h (0 Bft)
19.12.2013 15:56 8,2 C 6,7 C 89 % 1007,2 hPa 0,0 l/m 2 min 0 min 0,0 UV-I 30 W/m 0,0 km/h (0 Bft)
19.12.2013 15:58 8,2 C 6,1 C 89 % 1007,2 hPa 0,0 l/m 0 min 0 min 0,0 UV-I 26 W/m 0,0 km/h (0 Bft)
19.12.2013 16:00 8,2 C 6,1 C 93 % 1007,3 hPa 0,0 l/m 0 min 0 min 0,0 UV-I 25 W/m 0,0 km/h (0 Bft)
19.12.2013 16:02 8,1 C 6,1 C 89 % 1007,4 hPa 0,0 l/m 0 min 0 min 0,0 UV-I 25 W/m 0,0 km/h (0 Bft)
19.12.2013 16:06 8,1 C 6,1 C 89 % 1007,6 hPa 0,0 l/m 0 min 0 min 0,0 UV-I 25 W/m 5,1 km/h (1 Bft)
19.12.2013 16:08 8,1 C 6,1 C 89 % 1007,7 hPa 0,0 l/m 0 min 0 min 0,0 UV-I 23 W/m 0,0 km/h (0 Bft)
19.12.2013 16:10 8,0 C 6,1 C 89 % 1007,7 hPa 0,0 l/m 0 min 0 min 0,0 UV-I 18 W/m 10,3 km/h (2 Bft)
19.12.2013 16:12 7,9 C 6,1 C 89 % 1007,7 hPa 0,0 l/m 0 min 0 min 0,0 UV-I 16 W/m 5,1 km/h (1 Bft)
19.12.2013 16:14 7,9 C 6,1 C 89 % 1007,7 hPa 0,0 l/m 0 min 0 min 0,0 UV-I 16 W/m 2,6 km/h (1 Bft)
19.12.2013 16:16 7,9 C 6,1 C 89 % 1007,7 hPa 0,0 l/m 0 min 0 min 0,0 UV-I 12 W/m 0,0 km/h (0 Bft)
19.12.2013 16:18 7,9 C 6,1 C 89 % 1007,7 hPa 0,0 l/m 0 min 0 min 0,0 UV-I 11 W/m 0,0 km/h (0 Bft)
19.12.2013 16:20 7,9 C 6,1 C 89 % 1007,7 hPa 0,0 l/m 0 min 0 min 0,0 UV-I 9 W/m 0,0 km/h (0 Bft)
19.12.2013 16:22 7,9 C 5,6 C 89 % 1007,8 hPa 0,0 l/m 0 min 0 min 0,0 UV-I 9 W/m 0,0 km/h (0 Bft)
19.12.2013 16:24 7,9 C 5,6 C 89 % 1007,9 hPa 0,0 l/m 0 min 0 min 0,0 UV-I 7 W/m 0,0 km/h (0 Bft)
19.12.2013 16:26 7,9 C 5,6 C 89 % 1007,9 hPa 0,0 l/m 0 min 0 min 0,0 UV-I 7 W/m 0,0 km/h (0 Bft)
19.12.2013 16:28 7,9 C 5,6 C 89 % 1007,9 hPa 0,0 l/m 0 min 0 min 0,0 UV-I 5 W/m 0,0 km/h (0 Bft)
19.12.2013 16:30 7,8 C 5,6 C 89 % 1008,0 hPa 0,0 l/m 0 min 0 min 0,0 UV-I 5 W/m 0,0 km/h (0 Bft)
19.12.2013 16:32 7,8 C 5,0 C 89 % 1008,0 hPa 0,0 l/m 0 min 0 min 0,0 UV-I 5 W/m 0,0 km/h (0 Bft)
19.12.2013 16:34 7,8 C 5,0 C 88 % 1007,9 hPa 0,0 l/m 0 min 0 min 0,0 UV-I 5 W/m 0,0 km/h (0 Bft)
19.12.2013 16:36 7,8 C 5,0 C 88 % 1007,9 hPa 0,0 l/m 0 min 0 min 0,0 UV-I 5 W/m 0,0 km/h (0 Bft)
19.12.2013 16:38 7,8 C 5,0 C 88 % 1007,9 hPa 0,0 l/m 0 min 0 min 0,0 UV-I 5 W/m 0,0 km/h (0 Bft)
19.12.2013 16:40 7,7 C 4,4 C 88 % 1007,9 hPa 0,0 l/m 0 min 0 min 0,0 UV-I 0 W/m 0,0 km/h (0 Bft)
19.12.2013 16:42 7,7 C 4,4 C 88 % 1008,0 hPa 0,0 l/m 0 min 0 min 0,0 UV-I 0 W/m 0,0 km/h (0 Bft)
19.12.2013 16:44 7,7 C 4,4 C 88 % 1008,1 hPa 0,0 l/m 0 min 0 min 0,0 UV-I 0 W/m 0,0 km/h (0 Bft)
19.12.2013 16:46 7,7 C 4,4 C 88 % 1008,1 hPa 0,0 l/m 0 min 0 min 0,0 UV-I 0 W/m 0,0 km/h (0 Bft)
19.12.2013 16:48 7,6 C 4,4 C 88 % 1008,1 hPa 0,0 l/m 0 min 0 min 0,0 UV-I 0 W/m 0,0 km/h (0 Bft)
19.12.2013 16:50 7,6 C 4,4 C 88 % 1008,1 hPa 0,0 l/m 0 min 0 min 0,0 UV-I 0 W/m 0,0 km/h (0 Bft)
19.12.2013 16:52 7,5 C 4,4 C 88 % 1008,1 hPa 0,0 l/m 0 min 0 min 0,0 UV-I 0 W/m 0,0 km/h (0 Bft)
19.12.2013 16:54 7,5 C 4,4 C 88 % 1008,2 hPa 0,0 l/m 0 min 0 min 0,0 UV-I 0 W/m 0,0 km/h (0 Bft)
19.12.2013 16:56 7,4 C 4,4 C 88 % 1008,3 hPa 0,0 l/m 0 min 0 min 0,0 UV-I 0 W/m 0,0 km/h (0 Bft)
19.12.2013 16:58 7,4 C 3,9 C 88 % 1008,4 hPa 0,0 l/m 0 min 0 min 0,0 UV-I 0 W/m 0,0 km/h (0 Bft)
19.12.2013 17:00 7,3 C 3,9 C 88 % 1008,4 hPa 0,0 l/m 0 min 0 min 0,0 UV-I 0 W/m 0,0 km/h (0 Bft)
19.12.2013 17:02 7,3 C 3,9 C 88 % 1008,3 hPa 0,0 l/m 0 min 0 min 0,0 UV-I 0 W/m 0,0 km/h (0 Bft)
19.12.2013 17:06 7,2 C 3,9 C 88 % 1008,4 hPa 0,0 l/m 0 min 0 min 0,0 UV-I 0 W/m 0,0 km/h (0 Bft)
19.12.2013 17:08 7,2 C 3,9 C 88 % 1008,5 hPa 0,0 l/m 0 min 0 min 0,0 UV-I 0 W/m 0,0 km/h (0 Bft)
19.12.2013 17:10 7,1 C 3,9 C 88 % 1008,5 hPa 0,0 l/m 0 min 0 min 0,0 UV-I 0 W/m 0,0 km/h (0 Bft)
19.12.2013 17:12 7,1 C 3,9 C 88 % 1008,6 hPa 0,0 l/m 0 min 0 min 0,0 UV-I 0 W/m 0,0 km/h (0 Bft)
19.12.2013 17:14 7,1 C 3,9 C 89 % 1008,6 hPa 0,0 l/m 0 min 0 min 0,0 UV-I 0 W/m 0,0 km/h (0 Bft)
19.12.2013 17:16 7,0 C 3,9 C 89 % 1008,6 hPa 0,0 l/m 0 min 0 min 0,0 UV-I 0 W/m 0,0 km/h (0 Bft)
19.12.2013 17:18 6,9 C 3,9 C 89 % 1008,5 hPa 0,0 l/m 0 min 0 min 0,0 UV-I 0 W/m 2,6 km/h (1 Bft)
19.12.2013 17:20 6,9 C 4,4 C 89 % 1008,5 hPa 0,0 l/m 0 min 0 min 0,0 UV-I 0 W/m 5,1 km/h (1 Bft)
19.12.2013 17:22 6,9 C 4,4 C 89 % 1008,5 hPa 0,0 l/m 0 min 0 min 0,0 UV-I 0 W/m 0,0 km/h (0 Bft)
19.12.2013 17:24 6,8 C 4,4 C 89 % 1008,5 hPa 0,0 l/m 0 min 0 min 0,0 UV-I 0 W/m 0,0 km/h (0 Bft)
19.12.2013 17:26 6,8 C 4,4 C 89 % 1008,6 hPa 0,0 l/m 0 min 0 min 0,0 UV-I 0 W/m 0,0 km/h (0 Bft)
19.12.2013 17:28 6,7 C 4,4 C 89 % 1008,6 hPa 0,0 l/m 0 min 0 min 0,0 UV-I 0 W/m 0,0 km/h (0 Bft)
19.12.2013 17:30 6,7 C 4,4 C 90 % 1008,6 hPa 0,0 l/m 0 min 0 min 0,0 UV-I 0 W/m 0,0 km/h (0 Bft)
19.12.2013 17:32 6,7 C 3,9 C 90 % 1008,6 hPa 0,0 l/m 0 min 0 min 0,0 UV-I 0 W/m 0,0 km/h (0 Bft)
19.12.2013 17:34 6,7 C 3,9 C 90 % 1008,7 hPa 0,0 l/m 0 min 0 min 0,0 UV-I 0 W/m 0,0 km/h (0 Bft)
19.12.2013 17:36 6,6 C 3,9 C 90 % 1008,7 hPa 0,0 l/m 0 min 0 min 0,0 UV-I 0 W/m 0,0 km/h (0 Bft)
19.12.2013 17:38 6,6 C 3,9 C 90 % 1008,8 hPa 0,0 l/m 0 min 0 min 0,0 UV-I 0 W/m 0,0 km/h (0 Bft)
19.12.2013 17:40 6,6 C 3,9 C 90 % 1008,8 hPa 0,0 l/m 0 min 0 min 0,0 UV-I 0 W/m 0,0 km/h (0 Bft)
19.12.2013 17:42 6,6 C 3,9 C 90 % 1008,8 hPa 0,0 l/m 0 min 0 min 0,0 UV-I 0 W/m 0,0 km/h (0 Bft)
19.12.2013 17:44 6,5 C 3,9 C 90 % 1008,8 hPa 0,0 l/m 0 min 0 min 0,0 UV-I 0 W/m 2,6 km/h (1 Bft)
19.12.2013 17:46 6,5 C 3,9 C 90 % 1008,7 hPa 0,0 l/m 0 min 0 min 0,0 UV-I 0 W/m 0,0 km/h (0 Bft)
19.12.2013 17:48 6,4 C 4,4 C 90 % 1008,8 hPa 0,0 l/m 0 min 0 min 0,0 UV-I 0 W/m 0,0 km/h (0 Bft)
19.12.2013 17:50 6,4 C 4,4 C 90 % 1008,8 hPa 0,0 l/m 0 min 0 min 0,0 UV-I 0 W/m 0,0 km/h (0 Bft)
19.12.2013 17:52 6,4 C 3,9 C 90 % 1008,9 hPa 0,0 l/m 0 min 0 min 0,0 UV-I 0 W/m 0,0 km/h (0 Bft)
19.12.2013 17:54 6,4 C 4,4 C 91 % 1008,9 hPa 0,0 l/m 0 min 0 min 0,0 UV-I 0 W/m 0,0 km/h (0 Bft)
19.12.2013 17:56 6,4 C 4,4 C 91 % 1008,9 hPa 0,0 l/m 0 min 0 min 0,0 UV-I 0 W/m 0,0 km/h (0 Bft)
19.12.2013 17:58 6,4 C 3,9 C 91 % 1008,9 hPa 0,0 l/m 0 min 0 min 0,0 UV-I 0 W/m 0,0 km/h (0 Bft)
19.12.2013 18:00 6,4 C 3,9 C 91 % 1008,9 hPa 0,0 l/m 0 min 0 min 0,0 UV-I 0 W/m 0,0 km/h (0 Bft)
19.12.2013 18:02 6,4 C 3,9 C 91 % 1009,0 hPa 0,0 l/m 0 min 0 min 0,0 UV-I 0 W/m 0,0 km/h (0 Bft)
19.12.2013 18:04 6,4 C 3,9 C 91 % 1008,9 hPa 0,0 l/m 0 min 0 min 0,0 UV-I 0 W/m 0,0 km/h (0 Bft)
19.12.2013 18:06 6,3 C 3,9 C 91 % 1009,0 hPa 0,0 l/m 0 min 0 min 0,0 UV-I 0 W/m 0,0 km/h (0 Bft)
19.12.2013 18:08 6,3 C 3,9 C 91 % 1009,1 hPa 0,0 l/m 0 min 0 min 0,0 UV-I 0 W/m 0,0 km/h (0 Bft)
19.12.2013 18:10 6,3 C 3,9 C 91 % 1009,1 hPa 0,0 l/m 0 min 0 min 0,0 UV-I 0 W/m 0,0 km/h (0 Bft)
19.12.2013 18:12 6,3 C 3,9 C 91 % 1009,1 hPa 0,0 l/m 0 min 0 min 0,0 UV-I 0 W/m 0,0 km/h (0 Bft)
19.12.2013 18:14 6,2 C 3,9 C 91 % 1009,1 hPa 0,0 l/m 0 min 0 min 0,0 UV-I 0 W/m 0,0 km/h (0 Bft)
19.12.2013 18:16 6,2 C 3,9 C 91 % 1009,2 hPa 0,0 l/m 0 min 0 min 0,0 UV-I 0 W/m 0,0 km/h (0 Bft)
19.12.2013 18:18 6,2 C 3,3 C 91 % 1009,2 hPa 0,0 l/m 0 min 0 min 0,0 UV-I 0 W/m 0,0 km/h (0 Bft)
19.12.2013 18:20 6,2 C 3,3 C 91 % 1009,2 hPa 0,0 l/m 0 min 0 min 0,0 UV-I 0 W/m 0,0 km/h (0 Bft)
19.12.2013 18:22 6,2 C 3,9 C 91 % 1009,2 hPa 0,0 l/m 0 min 0 min 0,0 UV-I 0 W/m 7,7 km/h (2 Bft)
19.12.2013 18:24 6,1 C 3,9 C 92 % 1009,3 hPa 0,0 l/m 0 min 0 min 0,0 UV-I 0 W/m 0,0 km/h (0 Bft)
19.12.2013 18:26 6,1 C 3,3 C 92 % 1009,3 hPa 0,0 l/m 0 min 0 min 0,0 UV-I 0 W/m 0,0 km/h (0 Bft)
19.12.2013 18:28 6,1 C 3,9 C 92 % 1009,4 hPa 0,0 l/m 0 min 0 min 0,0 UV-I 0 W/m 0,0 km/h (0 Bft)
19.12.2013 18:30 6,0 C 3,3 C 92 % 1009,4 hPa 0,0 l/m 0 min 0 min 0,0 UV-I 0 W/m 0,0 km/h (0 Bft)
19.12.2013 18:32 6,0 C 3,3 C 92 % 1009,4 hPa 0,0 l/m 0 min 0 min 0,0 UV-I 0 W/m 0,0 km/h (0 Bft)
19.12.2013 18:34 5,9 C 3,3 C 92 % 1009,4 hPa 0,0 l/m 0 min 0 min 0,0 UV-I 0 W/m 0,0 km/h (0 Bft)
19.12.2013 18:36 5,9 C 3,3 C 92 % 1009,5 hPa 0,0 l/m 0 min 0 min 0,0 UV-I 0 W/m 0,0 km/h (0 Bft)
19.12.2013 18:38 5,9 C 3,3 C 92 % 1009,5 hPa 0,0 l/m 0 min 0 min 0,0 UV-I 0 W/m 0,0 km/h (0 Bft)
19.12.2013 18:40 5,9 C 3,3 C 92 % 1009,5 hPa 0,0 l/m 0 min 0 min 0,0 UV-I 0 W/m 0,0 km/h (0 Bft)
19.12.2013 18:42 5,8 C 3,3 C 92 % 1009,7 hPa 0,0 l/m 0 min 0 min 0,0 UV-I 0 W/m 2,6 km/h (1 Bft)
19.12.2013 18:44 5,8 C 3,3 C 92 % 1009,6 hPa 0,0 l/m 0 min 0 min 0,0 UV-I 0 W/m 0,0 km/h (0 Bft)
19.12.2013 18:46 5,8 C 3,3 C 92 % 1009,6 hPa 0,0 l/m 0 min 0 min 0,0 UV-I 0 W/m 0,0 km/h (0 Bft)
19.12.2013 18:48 5,8 C 3,3 C 92 % 1009,7 hPa 0,0 l/m 0 min 0 min 0,0 UV-I 0 W/m 5,1 km/h (1 Bft)
19.12.2013 18:50 5,7 C 3,3 C 92 % 1009,7 hPa 0,0 l/m 0 min 0 min 0,0 UV-I 0 W/m 2,6 km/h (1 Bft)
19.12.2013 18:52 5,7 C 3,3 C 92 % 1009,7 hPa 0,0 l/m 0 min 0 min 0,0 UV-I 0 W/m 0,0 km/h (0 Bft)
19.12.2013 18:54 5,7 C 3,3 C 92 % 1009,7 hPa 0,0 l/m 0 min 0 min 0,0 UV-I 0 W/m 0,0 km/h (0 Bft)
19.12.2013 18:56 5,7 C 3,3 C 92 % 1009,7 hPa 0,0 l/m 0 min 0 min 0,0 UV-I 0 W/m 0,0 km/h (0 Bft)
19.12.2013 18:58 5,7 C 3,3 C 92 % 1009,8 hPa 0,0 l/m 0 min 0 min 0,0 UV-I 0 W/m 0,0 km/h (0 Bft)
19.12.2013 19:00 5,6 C 3,3 C 92 % 1009,8 hPa 0,0 l/m 0 min 0 min 0,0 UV-I 0 W/m 0,0 km/h (0 Bft)
19.12.2013 19:02 5,6 C 3,3 C 92 % 1009,9 hPa 0,0 l/m 0 min 0 min 0,0 UV-I 0 W/m 0,0 km/h (0 Bft)
19.12.2013 19:04 5,6 C 3,3 C 93 % 1010,0 hPa 0,0 l/m 0 min 0 min 0,0 UV-I 0 W/m 0,0 km/h (0 Bft)
19.12.2013 19:06 5,6 C 3,3 C 93 % 1010,0 hPa 0,0 l/m 0 min 0 min 0,0 UV-I 0 W/m 0,0 km/h (0 Bft)
19.12.2013 19:08 5,5 C 3,9 C 93 % 1010,1 hPa 0,0 l/m 0 min 0 min 0,0 UV-I 0 W/m 0,0 km/h (0 Bft)
19.12.2013 19:10 5,5 C 3,9 C 93 % 1010,1 hPa 0,0 l/m 0 min 0 min 0,0 UV-I 0 W/m 7,7 km/h (2 Bft)
19.12.2013 19:12 5,5 C 3,9 C 93 % 1010,0 hPa 0,0 l/m 0 min 0 min 0,0 UV-I 0 W/m 0,0 km/h (0 Bft)
19.12.2013 19:14 5,5 C 3,9 C 93 % 1010,0 hPa 0,0 l/m 0 min 0 min 0,0 UV-I 0 W/m 0,0 km/h (0 Bft)
19.12.2013 19:16 5,5 C 3,9 C 93 % 1010,2 hPa 0,0 l/m 0 min 0 min 0,0 UV-I 0 W/m 0,0 km/h (0 Bft)
19.12.2013 19:18 5,5 C 3,9 C 93 % 1010,2 hPa 0,0 l/m 0 min 0 min 0,0 UV-I 0 W/m 0,0 km/h (0 Bft)
19.12.2013 19:20 5,5 C 3,9 C 93 % 1010,2 hPa 0,0 l/m 0 min 0 min 0,0 UV-I 0 W/m 10,3 km/h (2 Bft)
19.12.2013 19:22 5,5 C 3,9 C 93 % 1010,2 hPa 0,0 l/m 0 min 0 min 0,0 UV-I 0 W/m 2,6 km/h (1 Bft)
19.12.2013 19:24 5,5 C 3,9 C 93 % 1010,2 hPa 0,0 l/m 0 min 0 min 0,0 UV-I 0 W/m 5,1 km/h (1 Bft)
19.12.2013 19:26 5,5 C 3,9 C 93 % 1010,2 hPa 0,0 l/m 0 min 0 min 0,0 UV-I 0 W/m 2,6 km/h (1 Bft)
19.12.2013 19:28 5,4 C 3,9 C 93 % 1010,2 hPa 0,0 l/m 0 min 0 min 0,0 UV-I 0 W/m 5,1 km/h (1 Bft)
19.12.2013 19:30 5,4 C 3,9 C 93 % 1010,2 hPa 0,0 l/m 0 min 0 min 0,0 UV-I 0 W/m 7,7 km/h (2 Bft)
19.12.2013 19:32 5,5 C 3,9 C 93 % 1010,2 hPa 0,0 l/m 0 min 0 min 0,0 UV-I 0 W/m 7,7 km/h (2 Bft)
19.12.2013 19:34 5,5 C 3,9 C 94 % 1010,2 hPa 0,0 l/m 0 min 0 min 0,0 UV-I 0 W/m 7,7 km/h (2 Bft)
19.12.2013 19:36 5,5 C 3,9 C 94 % 1010,2 hPa 0,0 l/m 0 min 0 min 0,0 UV-I 0 W/m 7,7 km/h (2 Bft)
19.12.2013 19:38 5,5 C 3,9 C 94 % 1010,3 hPa 0,0 l/m 0 min 0 min 0,0 UV-I 0 W/m 5,1 km/h (1 Bft)
19.12.2013 19:40 5,5 C 3,9 C 94 % 1010,3 hPa 0,0 l/m 0 min 0 min 0,0 UV-I 0 W/m 0,0 km/h (0 Bft)
19.12.2013 19:42 5,5 C 3,9 C 94 % 1010,2 hPa 0,0 l/m 0 min 0 min 0,0 UV-I 0 W/m 0,0 km/h (0 Bft)
19.12.2013 19:44 5,6 C 3,9 C 94 % 1010,2 hPa 0,0 l/m 0 min 0 min 0,0 UV-I 0 W/m 7,7 km/h (2 Bft)
19.12.2013 19:46 5,6 C 3,9 C 94 % 1010,2 hPa 0,0 l/m 0 min 0 min 0,0 UV-I 0 W/m 7,7 km/h (2 Bft)
19.12.2013 19:48 5,6 C 3,9 C 94 % 1010,3 hPa 0,0 l/m 0 min 0 min 0,0 UV-I 0 W/m 5,1 km/h (1 Bft)
19.12.2013 19:50 5,6 C 3,9 C 94 % 1010,3 hPa 0,0 l/m 0 min 0 min 0,0 UV-I 0 W/m 0,0 km/h (0 Bft)
19.12.2013 19:52 5,6 C 3,9 C 94 % 1010,4 hPa 0,0 l/m 0 min 0 min 0,0 UV-I 0 W/m 0,0 km/h (0 Bft)
19.12.2013 19:54 5,6 C 3,9 C 94 % 1010,4 hPa 0,0 l/m 0 min 0 min 0,0 UV-I 0 W/m 0,0 km/h (0 Bft)
19.12.2013 19:56 5,6 C 3,9 C 94 % 1010,4 hPa 0,0 l/m 0 min 0 min 0,0 UV-I 0 W/m 10,3 km/h (2 Bft)
19.12.2013 19:58 5,6 C 3,9 C 94 % 1010,4 hPa 0,0 l/m 0 min 0 min 0,0 UV-I 0 W/m 2,6 km/h (1 Bft)
19.12.2013 20:00 5,6 C 3,9 C 94 % 1010,5 hPa 0,0 l/m 0 min 0 min 0,0 UV-I 0 W/m 0,0 km/h (0 Bft)
19.12.2013 20:02 5,6 C 3,9 C 94 % 1010,5 hPa 0,0 l/m 0 min 0 min 0,0 UV-I 0 W/m 0,0 km/h (0 Bft)
19.12.2013 20:04 5,5 C 3,9 C 94 % 1010,6 hPa 0,0 l/m 0 min 0 min 0,0 UV-I 0 W/m 0,0 km/h (0 Bft)
19.12.2013 20:06 5,5 C 3,9 C 94 % 1010,6 hPa 0,0 l/m 0 min 0 min 0,0 UV-I 0 W/m 0,0 km/h (0 Bft)
19.12.2013 20:08 5,5 C 3,9 C 94 % 1010,6 hPa 0,0 l/m 0 min 0 min 0,0 UV-I 0 W/m 0,0 km/h (0 Bft)
19.12.2013 20:10 5,5 C 3,9 C 94 % 1010,5 hPa 0,0 l/m 0 min 0 min 0,0 UV-I 0 W/m 0,0 km/h (0 Bft)
19.12.2013 20:12 5,5 C 3,9 C 94 % 1010,6 hPa 0,0 l/m 0 min 0 min 0,0 UV-I 0 W/m 0,0 km/h (0 Bft)
19.12.2013 20:14 5,4 C 3,3 C 94 % 1010,6 hPa 0,0 l/m 0 min 0 min 0,0 UV-I 0 W/m 0,0 km/h (0 Bft)
19.12.2013 20:16 5,4 C 3,3 C 94 % 1010,6 hPa 0,0 l/m 0 min 0 min 0,0 UV-I 0 W/m 0,0 km/h (0 Bft)
19.12.2013 20:18 5,4 C 3,3 C 94 % 1010,5 hPa 0,0 l/m 0 min 0 min 0,0 UV-I 0 W/m 7,7 km/h (2 Bft)
19.12.2013 20:20 5,4 C 3,3 C 94 % 1010,6 hPa 0,0 l/m 0 min 0 min 0,0 UV-I 0 W/m 0,0 km/h (0 Bft)
19.12.2013 20:22 5,4 C 3,3 C 94 % 1010,6 hPa 0,0 l/m 0 min 0 min 0,0 UV-I 0 W/m 0,0 km/h (0 Bft)
19.12.2013 20:24 5,4 C 3,3 C 94 % 1010,6 hPa 0,0 l/m 0 min 0 min 0,0 UV-I 0 W/m 2,6 km/h (1 Bft)
19.12.2013 20:26 5,3 C 3,3 C 94 % 1010,6 hPa 0,0 l/m 0 min 0 min 0,0 UV-I 0 W/m 2,6 km/h (1 Bft)
19.12.2013 20:28 5,3 C 3,3 C 94 % 1010,6 hPa 0,0 l/m 0 min 0 min 0,0 UV-I 0 W/m 0,0 km/h (0 Bft)
19.12.2013 20:30 5,3 C 3,3 C 94 % 1010,7 hPa 0,0 l/m 0 min 0 min 0,0 UV-I 0 W/m 0,0 km/h (0 Bft)
19.12.2013 20:32 5,3 C 2,8 C 94 % 1010,7 hPa 0,0 l/m 0 min 0 min 0,0 UV-I 0 W/m 0,0 km/h (0 Bft)
19.12.2013 20:34 5,2 C 2,8 C 94 % 1010,7 hPa 0,0 l/m 0 min 0 min 0,0 UV-I 0 W/m 5,1 km/h (1 Bft)
19.12.2013 20:36 5,2 C 2,8 C 94 % 1010,7 hPa 0,0 l/m 0 min 0 min 0,0 UV-I 0 W/m 0,0 km/h (0 Bft)
19.12.2013 20:38 5,2 C 2,8 C 94 % 1010,7 hPa 0,0 l/m 0 min 0 min 0,0 UV-I 0 W/m 0,0 km/h (0 Bft)
19.12.2013 20:40 5,2 C 2,8 C 94 % 1010,8 hPa 0,0 l/m 0 min 0 min 0,0 UV-I 0 W/m 0,0 km/h (0 Bft)
19.12.2013 20:42 5,1 C 2,8 C 94 % 1010,9 hPa 0,0 l/m 0 min 0 min 0,0 UV-I 0 W/m 0,0 km/h (0 Bft)
19.12.2013 20:44 5,1 C 2,8 C 94 % 1010,9 hPa 0,0 l/m 0 min 0 min 0,0 UV-I 0 W/m 2,6 km/h (1 Bft)
19.12.2013 20:46 5,1 C 3,3 C 94 % 1010,9 hPa 0,0 l/m 0 min 0 min 0,0 UV-I 0 W/m 5,1 km/h (1 Bft)
19.12.2013 20:48 5,1 C 3,3 C 94 % 1011,0 hPa 0,0 l/m 0 min 0 min 0,0 UV-I 0 W/m 0,0 km/h (0 Bft)
19.12.2013 20:50 5,0 C 3,3 C 94 % 1011,0 hPa 0,0 l/m 0 min 0 min 0,0 UV-I 0 W/m 0,0 km/h (0 Bft)
19.12.2013 20:52 5,0 C 3,3 C 93 % 1011,0 hPa 0,0 l/m 0 min 0 min 0,0 UV-I 0 W/m 0,0 km/h (0 Bft)
19.12.2013 20:54 5,0 C 3,3 C 94 % 1011,0 hPa 0,0 l/m 0 min 0 min 0,0 UV-I 0 W/m 0,0 km/h (0 Bft)
19.12.2013 20:56 5,0 C 3,3 C 94 % 1011,1 hPa 0,0 l/m 0 min 0 min 0,0 UV-I 0 W/m 0,0 km/h (0 Bft)
19.12.2013 20:58 4,9 C 3,3 C 94 % 1011,1 hPa 0,0 l/m 0 min 0 min 0,0 UV-I 0 W/m 0,0 km/h (0 Bft)
19.12.2013 21:00 4,9 C 2,8 C 94 % 1011,2 hPa 0,0 l/m 0 min 0 min 0,0 UV-I 0 W/m 0,0 km/h (0 Bft)
19.12.2013 21:02 4,9 C 2,8 C 94 % 1011,3 hPa 0,0 l/m 0 min 0 min 0,0 UV-I 0 W/m 0,0 km/h (0 Bft)
19.12.2013 21:04 4,9 C 2,8 C 94 % 1011,3 hPa 0,0 l/m 0 min 0 min 0,0 UV-I 0 W/m 0,0 km/h (0 Bft)
19.12.2013 21:06 4,9 C 2,8 C 94 % 1011,4 hPa 0,0 l/m 0 min 0 min 0,0 UV-I 0 W/m 0,0 km/h (0 Bft)
19.12.2013 21:08 4,9 C 2,8 C 94 % 1011,4 hPa 0,0 l/m 0 min 0 min 0,0 UV-I 0 W/m 0,0 km/h (0 Bft)
19.12.2013 21:10 4,8 C 2,8 C 94 % 1011,5 hPa 0,0 l/m 0 min 0 min 0,0 UV-I 0 W/m 0,0 km/h (0 Bft)
19.12.2013 21:12 4,8 C 2,8 C 94 % 1011,5 hPa 0,0 l/m 0 min 0 min 0,0 UV-I 0 W/m 0,0 km/h (0 Bft)
19.12.2013 21:14 4,8 C 2,8 C 94 % 1011,6 hPa 0,0 l/m 0 min 0 min 0,0 UV-I 0 W/m 0,0 km/h (0 Bft)
19.12.2013 21:16 4,8 C 2,8 C 94 % 1011,5 hPa 0,0 l/m 0 min 0 min 0,0 UV-I 0 W/m 0,0 km/h (0 Bft)
19.12.2013 21:18 4,8 C 2,8 C 94 % 1011,5 hPa 0,0 l/m 0 min 0 min 0,0 UV-I 0 W/m 0,0 km/h (0 Bft)
19.12.2013 21:20 4,8 C 2,8 C 94 % 1011,5 hPa 0,0 l/m 0 min 0 min 0,0 UV-I 0 W/m 0,0 km/h (0 Bft)
19.12.2013 21:22 4,7 C 2,8 C 94 % 1011,5 hPa 0,0 l/m 0 min 0 min 0,0 UV-I 0 W/m 0,0 km/h (0 Bft)
19.12.2013 21:24 4,7 C 2,8 C 94 % 1011,5 hPa 0,0 l/m 0 min 0 min 0,0 UV-I 0 W/m 2,6 km/h (1 Bft)
19.12.2013 21:26 4,7 C 2,8 C 94 % 1011,6 hPa 0,0 l/m 0 min 0 min 0,0 UV-I 0 W/m 0,0 km/h (0 Bft)
19.12.2013 21:28 4,7 C 2,8 C 94 % 1011,6 hPa 0,0 l/m 0 min 0 min 0,0 UV-I 0 W/m 0,0 km/h (0 Bft)
19.12.2013 21:30 4,7 C 2,8 C 94 % 1011,8 hPa 0,0 l/m 0 min 0 min 0,0 UV-I 0 W/m 5,1 km/h (1 Bft)
19.12.2013 21:32 4,7 C 2,8 C 94 % 1011,8 hPa 0,0 l/m 0 min 0 min 0,0 UV-I 0 W/m 0,0 km/h (0 Bft)
19.12.2013 21:34 4,6 C 2,8 C 94 % 1011,8 hPa 0,0 l/m 0 min 0 min 0,0 UV-I 0 W/m 0,0 km/h (0 Bft)
19.12.2013 21:36 4,6 C 2,8 C 94 % 1011,8 hPa 0,0 l/m 0 min 0 min 0,0 UV-I 0 W/m 0,0 km/h (0 Bft)
19.12.2013 21:38 4,6 C 2,2 C 94 % 1011,9 hPa 0,0 l/m 0 min 0 min 0,0 UV-I 0 W/m 0,0 km/h (0 Bft)
19.12.2013 21:40 4,6 C 2,2 C 94 % 1011,9 hPa 0,0 l/m 0 min 0 min 0,0 UV-I 0 W/m 0,0 km/h (0 Bft)
19.12.2013 21:42 4,6 C 2,2 C 94 % 1011,9 hPa 0,0 l/m 0 min 0 min 0,0 UV-I 0 W/m 0,0 km/h (0 Bft)
19.12.2013 21:44 4,6 C 2,2 C 94 % 1012,0 hPa 0,0 l/m 0 min 0 min 0,0 UV-I 0 W/m 0,0 km/h (0 Bft)
19.12.2013 21:46 4,5 C 2,2 C 94 % 1012,1 hPa 0,0 l/m 0 min 0 min 0,0 UV-I 0 W/m 2,6 km/h (1 Bft)
19.12.2013 21:48 4,5 C 2,2 C 94 % 1012,0 hPa 0,0 l/m 0 min 0 min 0,0 UV-I 0 W/m 0,0 km/h (0 Bft)
19.12.2013 21:50 4,5 C 2,2 C 94 % 1012,1 hPa 0,0 l/m 0 min 0 min 0,0 UV-I 0 W/m 0,0 km/h (0 Bft)
19.12.2013 21:52 4,4 C 2,8 C 94 % 1012,1 hPa 0,0 l/m 0 min 0 min 0,0 UV-I 0 W/m 0,0 km/h (0 Bft)
19.12.2013 21:54 4,4 C 2,2 C 94 % 1012,2 hPa 0,0 l/m 0 min 0 min 0,0 UV-I 0 W/m 0,0 km/h (0 Bft)
19.12.2013 21:56 4,4 C 2,2 C 94 % 1012,3 hPa 0,0 l/m 0 min 0 min 0,0 UV-I 0 W/m 0,0 km/h (0 Bft)
19.12.2013 21:58 4,4 C 2,2 C 94 % 1012,3 hPa 0,0 l/m 0 min 0 min 0,0 UV-I 0 W/m 0,0 km/h (0 Bft)
19.12.2013 22:00 4,4 C 2,2 C 94 % 1012,3 hPa 0,0 l/m 0 min 0 min 0,0 UV-I 0 W/m 0,0 km/h (0 Bft)
19.12.2013 22:02 4,4 C 2,2 C 94 % 1012,3 hPa 0,0 l/m 0 min 0 min 0,0 UV-I 0 W/m 0,0 km/h (0 Bft)
19.12.2013 22:04 4,3 C 2,2 C 94 % 1012,2 hPa 0,0 l/m 0 min 0 min 0,0 UV-I 0 W/m 2,6 km/h (1 Bft)
19.12.2013 22:06 4,3 C 2,2 C 94 % 1012,3 hPa 0,0 l/m 0 min 0 min 0,0 UV-I 0 W/m 0,0 km/h (0 Bft)
19.12.2013 22:08 4,3 C 2,2 C 94 % 1012,3 hPa 0,0 l/m 0 min 0 min 0,0 UV-I 0 W/m 0,0 km/h (0 Bft)
19.12.2013 22:10 4,3 C 2,2 C 94 % 1012,3 hPa 0,0 l/m 0 min 0 min 0,0 UV-I 0 W/m 0,0 km/h (0 Bft)
19.12.2013 22:12 4,3 C 2,2 C 94 % 1012,2 hPa 0,0 l/m 0 min 0 min 0,0 UV-I 0 W/m 0,0 km/h (0 Bft)
19.12.2013 22:14 4,2 C 2,2 C 94 % 1012,2 hPa 0,0 l/m 0 min 0 min 0,0 UV-I 0 W/m 0,0 km/h (0 Bft)
19.12.2013 22:16 4,2 C 2,2 C 94 % 1012,2 hPa 0,0 l/m 0 min 0 min 0,0 UV-I 0 W/m 0,0 km/h (0 Bft)
19.12.2013 22:18 4,2 C 1,7 C 94 % 1012,2 hPa 0,0 l/m 0 min 0 min 0,0 UV-I 0 W/m 0,0 km/h (0 Bft)
19.12.2013 22:20 4,2 C 1,7 C 94 % 1012,2 hPa 0,0 l/m 0 min 0 min 0,0 UV-I 0 W/m 0,0 km/h (0 Bft)
19.12.2013 22:22 4,2 C 1,7 C 94 % 1012,2 hPa 0,0 l/m 0 min 0 min 0,0 UV-I 0 W/m 0,0 km/h (0 Bft)
19.12.2013 22:24 4,1 C 1,7 C 94 % 1012,2 hPa 0,0 l/m 0 min 0 min 0,0 UV-I 0 W/m 0,0 km/h (0 Bft)
19.12.2013 22:26 4,1 C 1,7 C 94 % 1012,2 hPa 0,0 l/m 0 min 0 min 0,0 UV-I 0 W/m 2,6 km/h (1 Bft)
19.12.2013 22:28 4,1 C 1,7 C 94 % 1012,2 hPa 0,0 l/m 0 min 0 min 0,0 UV-I 0 W/m 2,6 km/h (1 Bft)
19.12.2013 22:30 4,0 C 1,7 C 94 % 1012,2 hPa 0,0 l/m 0 min 0 min 0,0 UV-I 0 W/m 0,0 km/h (0 Bft)
19.12.2013 22:32 4,0 C 1,7 C 94 % 1012,2 hPa 0,0 l/m 0 min 0 min 0,0 UV-I 0 W/m 0,0 km/h (0 Bft)
19.12.2013 22:34 3,9 C 1,7 C 94 % 1012,2 hPa 0,0 l/m 0 min 0 min 0,0 UV-I 0 W/m 0,0 km/h (0 Bft)
19.12.2013 22:36 3,9 C 1,7 C 94 % 1012,2 hPa 0,0 l/m 0 min 0 min 0,0 UV-I 0 W/m 2,6 km/h (1 Bft)
19.12.2013 22:38 3,9 C 1,7 C 94 % 1012,2 hPa 0,0 l/m 0 min 0 min 0,0 UV-I 0 W/m 0,0 km/h (0 Bft)
19.12.2013 22:40 3,9 C 1,7 C 94 % 1012,2 hPa 0,0 l/m 0 min 0 min 0,0 UV-I 0 W/m 0,0 km/h (0 Bft)
19.12.2013 22:42 3,8 C 1,7 C 94 % 1012,3 hPa 0,0 l/m 0 min 0 min 0,0 UV-I 0 W/m 0,0 km/h (0 Bft)
19.12.2013 22:44 3,8 C 1,7 C 94 % 1012,3 hPa 0,0 l/m 0 min 0 min 0,0 UV-I 0 W/m 0,0 km/h (0 Bft)
19.12.2013 22:46 3,8 C 1,7 C 94 % 1012,3 hPa 0,0 l/m 0 min 0 min 0,0 UV-I 0 W/m 0,0 km/h (0 Bft)
19.12.2013 22:48 3,7 C 1,7 C 94 % 1012,3 hPa 0,0 l/m 0 min 0 min 0,0 UV-I 0 W/m 2,6 km/h (1 Bft)
19.12.2013 22:50 3,7 C 1,7 C 94 % 1012,3 hPa 0,0 l/m 0 min 0 min 0,0 UV-I 0 W/m 0,0 km/h (0 Bft)
19.12.2013 22:52 3,7 C 1,7 C 95 % 1012,2 hPa 0,0 l/m 0 min 0 min 0,0 UV-I 0 W/m 0,0 km/h (0 Bft)
19.12.2013 22:54 3,7 C 1,7 C 95 % 1012,3 hPa 0,0 l/m 0 min 0 min 0,0 UV-I 0 W/m 0,0 km/h (0 Bft)
19.12.2013 22:56 3,7 C 1,7 C 95 % 1012,3 hPa 0,0 l/m 0 min 0 min 0,0 UV-I 0 W/m 0,0 km/h (0 Bft)
19.12.2013 22:58 3,6 C 1,7 C 95 % 1012,4 hPa 0,0 l/m 0 min 0 min 0,0 UV-I 0 W/m 0,0 km/h (0 Bft)
19.12.2013 23:00 3,6 C 1,7 C 95 % 1012,4 hPa 0,0 l/m 0 min 0 min 0,0 UV-I 0 W/m 0,0 km/h (0 Bft)
19.12.2013 23:02 3,6 C 1,1 C 95 % 1012,4 hPa 0,0 l/m 0 min 0 min 0,0 UV-I 0 W/m 0,0 km/h (0 Bft)
19.12.2013 23:04 3,5 C 1,1 C 95 % 1012,3 hPa 0,0 l/m 0 min 0 min 0,0 UV-I 0 W/m 0,0 km/h (0 Bft)
19.12.2013 23:06 3,5 C 1,1 C 95 % 1012,3 hPa 0,0 l/m 0 min 0 min 0,0 UV-I 0 W/m 0,0 km/h (0 Bft)
19.12.2013 23:08 3,5 C 1,1 C 95 % 1012,3 hPa 0,0 l/m 0 min 0 min 0,0 UV-I 0 W/m 0,0 km/h (0 Bft)
19.12.2013 23:10 3,4 C 1,1 C 95 % 1012,3 hPa 0,0 l/m 0 min 0 min 0,0 UV-I 0 W/m 0,0 km/h (0 Bft)
19.12.2013 23:12 3,4 C 1,1 C 95 % 1012,2 hPa 0,0 l/m 0 min 0 min 0,0 UV-I 0 W/m 0,0 km/h (0 Bft)
19.12.2013 23:14 3,4 C 1,1 C 95 % 1012,2 hPa 0,0 l/m 0 min 0 min 0,0 UV-I 0 W/m 0,0 km/h (0 Bft)
19.12.2013 23:16 3,4 C 1,1 C 95 % 1012,1 hPa 0,0 l/m 0 min 0 min 0,0 UV-I 0 W/m 0,0 km/h (0 Bft)
19.12.2013 23:18 3,3 C 1,1 C 95 % 1012,1 hPa 0,0 l/m 0 min 0 min 0,0 UV-I 0 W/m 0,0 km/h (0 Bft)
19.12.2013 23:20 3,3 C 1,1 C 95 % 1012,0 hPa 0,0 l/m 0 min 0 min 0,0 UV-I 0 W/m 0,0 km/h (0 Bft)
19.12.2013 23:22 3,3 C 1,1 C 95 % 1012,0 hPa 0,0 l/m 0 min 0 min 0,0 UV-I 0 W/m 2,6 km/h (1 Bft)
19.12.2013 23:24 3,3 C 1,1 C 95 % 1012,0 hPa 0,0 l/m 0 min 0 min 0,0 UV-I 0 W/m 0,0 km/h (0 Bft)
19.12.2013 23:26 3,2 C 1,1 C 95 % 1011,9 hPa 0,0 l/m 0 min 0 min 0,0 UV-I 0 W/m 2,6 km/h (1 Bft)
19.12.2013 23:28 3,2 C 1,1 C 95 % 1011,9 hPa 0,0 l/m 0 min 0 min 0,0 UV-I 0 W/m 2,6 km/h (1 Bft)
19.12.2013 23:30 3,2 C 1,1 C 95 % 1011,9 hPa 0,0 l/m 0 min 0 min 0,0 UV-I 0 W/m 0,0 km/h (0 Bft)
19.12.2013 23:32 3,2 C 1,1 C 95 % 1012,1 hPa 0,0 l/m 0 min 0 min 0,0 UV-I 0 W/m 0,0 km/h (0 Bft)
19.12.2013 23:34 3,2 C 1,1 C 95 % 1012,0 hPa 0,0 l/m 0 min 0 min 0,0 UV-I 0 W/m 0,0 km/h (0 Bft)
19.12.2013 23:36 3,2 C 1,1 C 95 % 1012,1 hPa 0,0 l/m 0 min 0 min 0,0 UV-I 0 W/m 2,6 km/h (1 Bft)
19.12.2013 23:38 3,2 C 1,1 C 95 % 1012,1 hPa 0,0 l/m 0 min 0 min 0,0 UV-I 0 W/m 0,0 km/h (0 Bft)
19.12.2013 23:40 3,1 C 1,1 C 95 % 1012,1 hPa 0,0 l/m 0 min 0 min 0,0 UV-I 0 W/m 2,6 km/h (1 Bft)
19.12.2013 23:42 3,1 C 1,1 C 95 % 1012,1 hPa 0,0 l/m 0 min 0 min 0,0 UV-I 0 W/m 7,7 km/h (2 Bft)
19.12.2013 23:44 3,1 C 1,1 C 95 % 1012,0 hPa 0,0 l/m 0 min 0 min 0,0 UV-I 0 W/m 5,1 km/h (1 Bft)
19.12.2013 23:46 3,1 C 1,1 C 95 % 1012,1 hPa 0,0 l/m 0 min 0 min 0,0 UV-I 0 W/m 0,0 km/h (0 Bft)
19.12.2013 23:48 3,0 C 1,1 C 95 % 1012,2 hPa 0,0 l/m 0 min 0 min 0,0 UV-I 0 W/m 0,0 km/h (0 Bft)
19.12.2013 23:50 3,0 C 1,1 C 95 % 1012,2 hPa 0,0 l/m 0 min 0 min 0,0 UV-I 0 W/m 0,0 km/h (0 Bft)
19.12.2013 23:52 3,0 C 1,1 C 95 % 1012,2 hPa 0,0 l/m 0 min 0 min 0,0 UV-I 0 W/m 0,0 km/h (0 Bft)
19.12.2013 23:54 3,0 C 1,1 C 95 % 1012,1 hPa 0,0 l/m 0 min 0 min 0,0 UV-I 0 W/m 0,0 km/h (0 Bft)
19.12.2013 23:56 2,9 C 1,1 C 95 % 1012,1 hPa 0,0 l/m 0 min 0 min 0,0 UV-I 0 W/m 0,0 km/h (0 Bft)
19.12.2013 23:58 2,9 C 1,1 C 95 % 1012,1 hPa 0,0 l/m 0 min 0 min 0,0 UV-I 0 W/m 2,6 km/h (1 Bft)
_ Min-Zeit 23:56 23:02 13:54 07:00 - - - - - 03:20
Minimum _ 2,9 C 1,1 C 86 % 1001,0 hPa - - - - - 0,0 km/h (0 Bft)
_ Max-Zeit 11:46 11:40 05:40 22:58 02:50 11:24 02:32 00:00 11:42 05:30
Maximum _ 10,1 C 8,3 C 100 % 1012,4 hPa 0,2 l/m 2 min 2 min 0,0 UV-I 258 W/m 41,2 km/h
S (6 Bft)
Durchschnitt _ 7,3 C 5,5 C 92 % 1005,8 hPa #6,8 l/m #50 min. #5:42 h 0,0 UV-I 59 W/m 10,4 km/h (2 Bft)
© 2013 W. Hausmann